Wetterdaten: Freitag, 12.02.2016
Datum Zeit Temp. Aussen Temp. o. S. +5cm Feuchte Auss BlattFeu 1 Luftdruck Regen Sonnenschein Regendauer Solar Windben Empfang
12.02.2016 00:00 3,2 C 3,3 C 2,2 C 93 % 0 lf 1004,2 hPa 0,0 l/m 0 min 0 min 0 W/m 4,2 km/h (1 Bft) 92,00 %
12.02.2016 00:02 3,2 C 3,3 C 2,2 C 93 % 0 lf 1004,2 hPa 0,0 l/m 0 min 0 min 0 W/m 6,3 km/h (2 Bft) 94,59 %
12.02.2016 00:06 3,3 C 3,9 C 2,2 C 93 % 0 lf 1004,2 hPa 0,0 l/m 0 min 0 min 0 W/m 8,4 km/h (2 Bft) 93,88 %
12.02.2016 00:08 3,2 C 3,9 C 2,2 C 93 % 0 lf 1004,2 hPa 0,0 l/m 0 min 0 min 0 W/m 6,3 km/h (2 Bft) 97,87 %
12.02.2016 00:10 3,2 C 3,9 C 2,2 C 93 % 0 lf 1004,2 hPa 0,0 l/m 0 min 0 min 0 W/m 8,4 km/h (2 Bft) 100,00 %
12.02.2016 00:12 3,3 C 3,9 C 2,2 C 93 % 0 lf 1004,2 hPa 0,0 l/m 0 min 0 min 0 W/m 10,5 km/h (2 Bft) 100,00 %
12.02.2016 00:14 3,3 C 3,9 C 2,2 C 93 % 0 lf 1004,2 hPa 0,0 l/m 0 min 0 min 0 W/m 10,5 km/h (2 Bft) 97,14 %
12.02.2016 00:16 3,3 C 3,9 C 2,2 C 93 % 0 lf 1004,3 hPa 0,0 l/m 0 min 0 min 0 W/m 8,4 km/h (2 Bft) 100,00 %
12.02.2016 00:18 3,3 C 3,9 C 2,2 C 93 % 0 lf 1004,1 hPa 0,0 l/m 0 min 0 min 0 W/m 4,2 km/h (1 Bft) 100,00 %
12.02.2016 00:20 3,3 C 3,9 C 2,2 C 93 % 0 lf 1004,2 hPa 0,0 l/m 0 min 0 min 0 W/m 8,4 km/h (2 Bft) 100,00 %
12.02.2016 00:22 3,3 C 3,9 C 2,2 C 93 % 0 lf 1004,2 hPa 0,0 l/m 0 min 0 min 0 W/m 8,4 km/h (2 Bft) 97,87 %
12.02.2016 00:24 3,3 C 3,9 C 2,2 C 93 % 0 lf 1004,1 hPa 0,0 l/m 0 min 0 min 0 W/m 6,3 km/h (2 Bft) 97,87 %
12.02.2016 00:26 3,3 C 3,9 C 2,2 C 93 % 0 lf 1004,1 hPa 0,0 l/m 0 min 0 min 0 W/m 8,4 km/h (2 Bft) 100,00 %
12.02.2016 00:28 3,3 C 3,9 C 2,2 C 93 % 0 lf 1004,1 hPa 0,0 l/m 0 min 0 min 0 W/m 8,4 km/h (2 Bft) 100,00 %
12.02.2016 00:30 3,3 C 3,9 C 2,2 C 93 % 0 lf 1004,1 hPa 0,0 l/m 0 min 0 min 0 W/m 6,3 km/h (2 Bft) 100,00 %
12.02.2016 00:32 3,3 C 3,9 C 2,2 C 93 % 0 lf 1004,1 hPa 0,0 l/m 0 min 0 min 0 W/m 12,6 km/h (3 Bft) 97,87 %
12.02.2016 00:34 3,3 C 3,9 C 2,2 C 93 % 0 lf 1004,1 hPa 0,0 l/m 0 min 0 min 0 W/m 10,5 km/h (2 Bft) 96,00 %
12.02.2016 00:36 3,3 C 3,3 C 2,2 C 93 % 0 lf 1004,0 hPa 0,0 l/m 0 min 0 min 0 W/m 6,3 km/h (2 Bft) 97,92 %
12.02.2016 00:38 3,3 C 3,3 C 2,2 C 93 % 0 lf 1004,0 hPa 0,0 l/m 0 min 0 min 0 W/m 10,5 km/h (2 Bft) 97,14 %
12.02.2016 00:40 3,3 C 3,9 C 2,2 C 93 % 0 lf 1004,0 hPa 0,0 l/m 0 min 0 min 0 W/m 10,5 km/h (2 Bft) 100,00 %
12.02.2016 00:42 3,3 C 3,3 C 2,2 C 93 % 0 lf 1004,0 hPa 0,0 l/m 0 min 0 min 0 W/m 8,4 km/h (2 Bft) 95,65 %
12.02.2016 00:44 3,3 C 3,9 C 2,2 C 93 % 0 lf 1003,9 hPa 0,0 l/m 0 min 0 min 0 W/m 8,4 km/h (2 Bft) 98,18 %
12.02.2016 00:46 3,3 C 3,9 C 2,2 C 93 % 0 lf 1003,9 hPa 0,0 l/m 0 min 0 min 0 W/m 10,5 km/h (2 Bft) 97,87 %
12.02.2016 00:48 3,3 C 3,9 C 2,2 C 93 % 0 lf 1003,9 hPa 0,0 l/m 0 min 0 min 0 W/m 8,4 km/h (2 Bft) 95,74 %
12.02.2016 00:50 3,3 C 3,9 C 2,2 C 93 % 0 lf 1003,9 hPa 0,0 l/m 0 min 0 min 0 W/m 10,5 km/h (2 Bft) 97,87 %
12.02.2016 00:52 3,3 C 3,9 C 2,2 C 93 % 0 lf 1003,9 hPa 0,0 l/m 0 min 0 min 0 W/m 12,6 km/h (3 Bft) 97,96 %
12.02.2016 00:54 3,3 C 3,9 C 2,2 C 93 % 0 lf 1004,0 hPa 0,0 l/m 0 min 0 min 0 W/m 10,5 km/h (2 Bft) 97,92 %
12.02.2016 00:56 3,3 C 3,9 C 2,2 C 93 % 0 lf 1003,9 hPa 0,0 l/m 0 min 0 min 0 W/m 10,5 km/h (2 Bft) 97,87 %
12.02.2016 00:58 3,3 C 3,9 C 2,2 C 93 % 0 lf 1003,9 hPa 0,0 l/m 0 min 0 min 0 W/m 14,6 km/h (3 Bft) 97,87 %
12.02.2016 01:00 3,3 C 3,9 C 2,2 C 93 % 0 lf 1004,0 hPa 0,0 l/m 0 min 0 min 0 W/m 10,5 km/h (2 Bft) 95,92 %
12.02.2016 01:02 3,3 C 3,9 C 2,2 C 93 % 0 lf 1003,9 hPa 0,0 l/m 0 min 0 min 0 W/m 12,6 km/h (3 Bft) 94,44 %
12.02.2016 01:04 3,3 C 3,9 C 2,2 C 92 % 0 lf 1003,9 hPa 0,0 l/m 0 min 0 min 0 W/m 10,5 km/h (2 Bft) 95,65 %
12.02.2016 01:06 3,3 C 3,9 C 2,2 C 92 % 0 lf 1003,9 hPa 0,0 l/m 0 min 0 min 0 W/m 12,6 km/h (3 Bft) 95,74 %
12.02.2016 01:08 3,4 C 3,9 C 2,2 C 92 % 0 lf 1003,9 hPa 0,0 l/m 0 min 0 min 0 W/m 8,4 km/h (2 Bft) 93,62 %
12.02.2016 01:10 3,4 C 3,9 C 2,2 C 92 % 0 lf 1003,9 hPa 0,0 l/m 0 min 0 min 0 W/m 10,5 km/h (2 Bft) 97,87 %
12.02.2016 01:12 3,4 C 3,9 C 2,2 C 92 % 0 lf 1003,8 hPa 0,0 l/m 0 min 0 min 0 W/m 12,6 km/h (3 Bft) 98,18 %
12.02.2016 01:14 3,4 C 3,9 C 2,2 C 92 % 0 lf 1003,8 hPa 0,0 l/m 0 min 0 min 0 W/m 14,6 km/h (3 Bft) 100,00 %
12.02.2016 01:16 3,4 C 3,9 C 2,2 C 92 % 0 lf 1003,8 hPa 0,0 l/m 0 min 0 min 0 W/m 10,5 km/h (2 Bft) 100,00 %
12.02.2016 01:18 3,4 C 3,9 C 2,2 C 92 % 0 lf 1003,8 hPa 0,0 l/m 0 min 0 min 0 W/m 14,6 km/h (3 Bft) 97,87 %
12.02.2016 01:20 3,4 C 3,9 C 2,2 C 92 % 0 lf 1003,8 hPa 0,0 l/m 0 min 0 min 0 W/m 14,6 km/h (3 Bft) 97,87 %
12.02.2016 01:22 3,4 C 3,9 C 2,8 C 92 % 0 lf 1003,7 hPa 0,0 l/m 0 min 0 min 0 W/m 10,5 km/h (2 Bft) 97,87 %
12.02.2016 01:24 3,4 C 3,9 C 2,2 C 92 % 0 lf 1003,8 hPa 0,0 l/m 0 min 0 min 0 W/m 8,4 km/h (2 Bft) 94,00 %
12.02.2016 01:26 3,4 C 3,9 C 2,2 C 92 % 0 lf 1003,7 hPa 0,0 l/m 0 min 0 min 0 W/m 8,4 km/h (2 Bft) 95,74 %
12.02.2016 01:28 3,4 C 3,9 C 2,2 C 92 % 0 lf 1003,7 hPa 0,0 l/m 0 min 0 min 0 W/m 10,5 km/h (2 Bft) 97,83 %
12.02.2016 01:30 3,4 C 3,9 C 2,2 C 92 % 0 lf 1003,7 hPa 0,0 l/m 0 min 0 min 0 W/m 10,5 km/h (2 Bft) 97,87 %
12.02.2016 01:32 3,4 C 3,9 C 2,2 C 92 % 0 lf 1003,8 hPa 0,0 l/m 0 min 0 min 0 W/m 8,4 km/h (2 Bft) 95,74 %
12.02.2016 01:34 3,4 C 3,9 C 2,2 C 92 % 0 lf 1003,7 hPa 0,0 l/m 0 min 0 min 0 W/m 12,6 km/h (3 Bft) 96,36 %
12.02.2016 01:36 3,4 C 3,9 C 2,2 C 92 % 0 lf 1003,7 hPa 0,0 l/m 0 min 0 min 0 W/m 12,6 km/h (3 Bft) 97,83 %
12.02.2016 01:38 3,4 C 3,9 C 2,8 C 92 % 0 lf 1003,7 hPa 0,0 l/m 0 min 0 min 0 W/m 12,6 km/h (3 Bft) 97,37 %
12.02.2016 01:40 3,5 C 3,9 C 2,8 C 92 % 0 lf 1003,7 hPa 0,0 l/m 0 min 0 min 0 W/m 14,6 km/h (3 Bft) 97,92 %
12.02.2016 01:42 3,5 C 3,9 C 2,8 C 92 % 0 lf 1003,7 hPa 0,0 l/m 0 min 0 min 0 W/m 12,6 km/h (3 Bft) 91,49 %
12.02.2016 01:44 3,5 C 3,9 C 2,2 C 92 % 0 lf 1003,7 hPa 0,0 l/m 0 min 0 min 0 W/m 18,8 km/h (3 Bft) 93,62 %
12.02.2016 01:46 3,5 C 3,9 C 2,8 C 92 % 0 lf 1003,6 hPa 0,0 l/m 0 min 0 min 0 W/m 12,6 km/h (3 Bft) 92,73 %
12.02.2016 01:48 3,5 C 3,9 C 2,8 C 92 % 0 lf 1003,6 hPa 0,0 l/m 0 min 0 min 0 W/m 10,5 km/h (2 Bft) 94,74 %
12.02.2016 01:50 3,5 C 3,9 C 2,2 C 92 % 0 lf 1003,7 hPa 0,0 l/m 0 min 0 min 0 W/m 16,7 km/h (3 Bft) 95,65 %
12.02.2016 01:52 3,6 C 3,9 C 2,8 C 92 % 0 lf 1003,6 hPa 0,0 l/m 0 min 0 min 0 W/m 20,9 km/h (4 Bft) 93,62 %
12.02.2016 01:54 3,5 C 3,9 C 2,8 C 92 % 0 lf 1003,6 hPa 0,0 l/m 0 min 0 min 0 W/m 14,6 km/h (3 Bft) 93,62 %
12.02.2016 01:56 3,6 C 3,9 C 2,8 C 92 % 0 lf 1003,6 hPa 0,0 l/m 0 min 0 min 0 W/m 14,6 km/h (3 Bft) 95,74 %
12.02.2016 01:58 3,6 C 3,9 C 2,2 C 92 % 0 lf 1003,6 hPa 0,0 l/m 0 min 0 min 0 W/m 10,5 km/h (2 Bft) 95,74 %
12.02.2016 02:00 3,5 C 3,9 C 2,2 C 92 % 0 lf 1003,6 hPa 0,0 l/m 0 min 0 min 0 W/m 18,8 km/h (3 Bft) 91,49 %
12.02.2016 02:02 3,6 C 3,9 C 2,2 C 92 % 0 lf 1003,7 hPa 0,0 l/m 0 min 0 min 0 W/m 18,8 km/h (3 Bft) 92,86 %
12.02.2016 02:04 3,6 C 3,9 C 2,2 C 92 % 0 lf 1003,6 hPa 0,0 l/m 0 min 0 min 0 W/m 16,7 km/h (3 Bft) 92,73 %
12.02.2016 02:06 3,5 C 3,9 C 2,2 C 92 % 0 lf 1003,6 hPa 0,0 l/m 0 min 0 min 0 W/m 18,8 km/h (3 Bft) 93,62 %
12.02.2016 02:08 3,5 C 3,9 C 2,2 C 92 % 0 lf 1003,6 hPa 0,0 l/m 0 min 0 min 0 W/m 14,6 km/h (3 Bft) 91,49 %
12.02.2016 02:10 3,5 C 3,9 C 2,2 C 92 % 0 lf 1003,6 hPa 0,0 l/m 0 min 0 min 0 W/m 12,6 km/h (3 Bft) 93,62 %
12.02.2016 02:12 3,5 C 3,3 C 2,2 C 92 % 0 lf 1003,6 hPa 0,0 l/m 0 min 0 min 0 W/m 12,6 km/h (3 Bft) 91,30 %
12.02.2016 02:14 3,5 C 3,3 C 2,2 C 92 % 0 lf 1003,6 hPa 0,0 l/m 0 min 0 min 0 W/m 14,6 km/h (3 Bft) 94,00 %
12.02.2016 02:16 3,5 C 3,3 C 2,2 C 92 % 0 lf 1003,6 hPa 0,0 l/m 0 min 0 min 0 W/m 12,6 km/h (3 Bft) 93,62 %
12.02.2016 02:18 3,5 C 3,3 C 2,2 C 92 % 0 lf 1003,6 hPa 0,0 l/m 0 min 0 min 0 W/m 8,4 km/h (2 Bft) 91,43 %
12.02.2016 02:20 3,5 C 3,3 C 2,2 C 91 % 0 lf 1003,6 hPa 0,0 l/m 0 min 0 min 0 W/m 12,6 km/h (3 Bft) 94,64 %
12.02.2016 02:22 3,4 C 3,3 C 2,2 C 91 % 0 lf 1003,6 hPa 0,0 l/m 0 min 0 min 0 W/m 8,4 km/h (2 Bft) 90,00 %
12.02.2016 02:24 3,4 C 3,3 C 2,2 C 91 % 0 lf 1003,6 hPa 0,0 l/m 0 min 0 min 0 W/m 10,5 km/h (2 Bft) 91,30 %
12.02.2016 02:26 3,4 C 3,3 C 2,2 C 91 % 0 lf 1003,5 hPa 0,0 l/m 0 min 0 min 0 W/m 8,4 km/h (2 Bft) 93,62 %
12.02.2016 02:28 3,4 C 3,3 C 2,2 C 91 % 1 lf 1003,5 hPa 0,0 l/m 0 min 0 min 0 W/m 8,4 km/h (2 Bft) 93,62 %
12.02.2016 02:30 3,4 C 3,3 C 2,2 C 91 % 0 lf 1003,5 hPa 0,0 l/m 0 min 2 min 0 W/m 12,6 km/h (3 Bft) 91,43 %
12.02.2016 02:32 3,4 C 3,3 C 2,2 C 91 % 1 lf 1003,5 hPa 0,0 l/m 0 min 2 min 0 W/m 8,4 km/h (2 Bft) 95,74 %
12.02.2016 02:34 3,4 C 3,3 C 2,2 C 91 % 0 lf 1003,5 hPa 0,0 l/m 0 min 2 min 0 W/m 12,6 km/h (3 Bft) 94,64 %
12.02.2016 02:36 3,3 C 3,3 C 2,2 C 91 % 0 lf 1003,5 hPa 0,0 l/m 0 min 2 min 0 W/m 8,4 km/h (2 Bft) 93,48 %
12.02.2016 02:38 3,3 C 3,3 C 2,2 C 91 % 0 lf 1003,5 hPa 0,0 l/m 0 min 2 min 0 W/m 6,3 km/h (2 Bft) 95,74 %
12.02.2016 02:40 3,3 C 3,3 C 1,7 C 91 % 0 lf 1003,5 hPa 0,0 l/m 0 min 0 min 0 W/m 6,3 km/h (2 Bft) 91,49 %
12.02.2016 02:42 3,3 C 3,3 C 1,7 C 91 % 0 lf 1003,5 hPa 0,0 l/m 0 min 0 min 0 W/m 8,4 km/h (2 Bft) 93,62 %
12.02.2016 02:44 3,3 C 3,3 C 1,7 C 91 % 0 lf 1003,5 hPa 0,0 l/m 0 min 0 min 0 W/m 4,2 km/h (1 Bft) 93,62 %
12.02.2016 02:46 3,3 C 3,3 C 1,7 C 91 % 0 lf 1003,5 hPa 0,0 l/m 0 min 0 min 0 W/m 4,2 km/h (1 Bft) 95,74 %
12.02.2016 02:48 3,3 C 3,3 C 1,7 C 91 % 0 lf 1003,5 hPa 0,0 l/m 0 min 0 min 0 W/m 6,3 km/h (2 Bft) 97,83 %
12.02.2016 02:50 3,3 C 3,3 C 1,7 C 91 % 0 lf 1003,5 hPa 0,0 l/m 0 min 0 min 0 W/m 8,4 km/h (2 Bft) 94,00 %
12.02.2016 02:52 3,3 C 3,3 C 2,2 C 91 % 0 lf 1003,5 hPa 0,0 l/m 0 min 0 min 0 W/m 8,4 km/h (2 Bft) 97,87 %
12.02.2016 02:54 3,3 C 3,3 C 2,2 C 91 % 0 lf 1003,5 hPa 0,0 l/m 0 min 0 min 0 W/m 4,2 km/h (1 Bft) 95,12 %
12.02.2016 02:56 3,2 C 3,3 C 1,7 C 91 % 0 lf 1003,5 hPa 0,0 l/m 0 min 0 min 0 W/m 8,4 km/h (2 Bft) 95,74 %
12.02.2016 02:58 3,2 C 3,3 C 2,2 C 91 % 0 lf 1003,5 hPa 0,0 l/m 0 min 0 min 0 W/m 6,3 km/h (2 Bft) 98,00 %
12.02.2016 03:00 3,2 C 3,3 C 2,2 C 91 % 0 lf 1003,4 hPa 0,0 l/m 0 min 0 min 0 W/m 8,4 km/h (2 Bft) 100,00 %
12.02.2016 03:02 3,2 C 3,3 C 2,2 C 91 % 0 lf 1003,4 hPa 0,0 l/m 0 min 0 min 0 W/m 4,2 km/h (1 Bft) 96,00 %
12.02.2016 03:04 3,2 C 3,3 C 2,2 C 91 % 0 lf 1003,4 hPa 0,0 l/m 0 min 0 min 0 W/m 6,3 km/h (2 Bft) 98,00 %
12.02.2016 03:06 3,2 C 3,3 C 2,2 C 91 % 0 lf 1003,5 hPa 0,0 l/m 0 min 0 min 0 W/m 8,4 km/h (2 Bft) 100,00 %
12.02.2016 03:08 3,2 C 3,3 C 2,2 C 91 % 0 lf 1003,4 hPa 0,0 l/m 0 min 0 min 0 W/m 10,5 km/h (2 Bft) 91,49 %
12.02.2016 03:10 3,2 C 3,3 C 2,2 C 91 % 0 lf 1003,5 hPa 0,0 l/m 0 min 0 min 0 W/m 6,3 km/h (2 Bft) 100,00 %
12.02.2016 03:12 3,2 C 3,3 C 2,2 C 92 % 0 lf 1003,4 hPa 0,0 l/m 0 min 0 min 0 W/m 12,6 km/h (3 Bft) 100,00 %
12.02.2016 03:14 3,2 C 3,3 C 2,2 C 92 % 0 lf 1003,4 hPa 0,0 l/m 0 min 0 min 0 W/m 10,5 km/h (2 Bft) 100,00 %
12.02.2016 03:16 3,2 C 3,3 C 2,2 C 92 % 0 lf 1003,4 hPa 0,0 l/m 0 min 0 min 0 W/m 8,4 km/h (2 Bft) 98,11 %
12.02.2016 03:18 3,2 C 3,3 C 2,2 C 92 % 0 lf 1003,4 hPa 0,0 l/m 0 min 0 min 0 W/m 6,3 km/h (2 Bft) 98,00 %
12.02.2016 03:20 3,2 C 3,3 C 2,2 C 92 % 0 lf 1003,4 hPa 0,0 l/m 0 min 0 min 0 W/m 10,5 km/h (2 Bft) 100,00 %
12.02.2016 03:22 3,2 C 3,3 C 2,2 C 92 % 0 lf 1003,4 hPa 0,0 l/m 0 min 0 min 0 W/m 10,5 km/h (2 Bft) 100,00 %
12.02.2016 03:24 3,2 C 3,3 C 2,2 C 92 % 0 lf 1003,4 hPa 0,0 l/m 0 min 0 min 0 W/m 10,5 km/h (2 Bft) 95,65 %
12.02.2016 03:26 3,2 C 3,3 C 2,2 C 92 % 0 lf 1003,3 hPa 0,0 l/m 0 min 0 min 0 W/m 10,5 km/h (2 Bft) 95,74 %
12.02.2016 03:28 3,2 C 3,3 C 2,2 C 92 % 0 lf 1003,2 hPa 0,0 l/m 0 min 0 min 0 W/m 8,4 km/h (2 Bft) 100,00 %
12.02.2016 03:30 3,2 C 3,3 C 2,2 C 92 % 0 lf 1003,1 hPa 0,0 l/m 0 min 0 min 0 W/m 6,3 km/h (2 Bft) 100,00 %
12.02.2016 03:32 3,2 C 3,3 C 2,2 C 92 % 0 lf 1003,1 hPa 0,0 l/m 0 min 0 min 0 W/m 6,3 km/h (2 Bft) 95,74 %
12.02.2016 03:34 3,2 C 3,3 C 2,2 C 92 % 0 lf 1003,1 hPa 0,0 l/m 0 min 0 min 0 W/m 6,3 km/h (2 Bft) 100,00 %
12.02.2016 03:36 3,2 C 3,3 C 2,2 C 92 % 0 lf 1003,1 hPa 0,0 l/m 0 min 0 min 0 W/m 8,4 km/h (2 Bft) 100,00 %
12.02.2016 03:38 3,2 C 3,3 C 2,2 C 92 % 0 lf 1003,1 hPa 0,0 l/m 0 min 0 min 0 W/m 4,2 km/h (1 Bft) 100,00 %
12.02.2016 03:40 3,2 C 3,3 C 2,2 C 92 % 0 lf 1003,1 hPa 0,0 l/m 0 min 0 min 0 W/m 8,4 km/h (2 Bft) 97,87 %
12.02.2016 03:42 3,2 C 3,3 C 2,2 C 92 % 0 lf 1003,0 hPa 0,0 l/m 0 min 0 min 0 W/m 4,2 km/h (1 Bft) 97,87 %
12.02.2016 03:44 3,2 C 3,3 C 2,2 C 92 % 0 lf 1003,0 hPa 0,0 l/m 0 min 0 min 0 W/m 6,3 km/h (2 Bft) 100,00 %
12.02.2016 03:46 3,2 C 3,3 C 2,2 C 92 % 0 lf 1003,0 hPa 0,0 l/m 0 min 0 min 0 W/m 6,3 km/h (2 Bft) 97,37 %
12.02.2016 03:48 3,2 C 3,3 C 2,2 C 92 % 0 lf 1003,1 hPa 0,0 l/m 0 min 0 min 0 W/m 6,3 km/h (2 Bft) 97,83 %
12.02.2016 03:50 3,2 C 3,3 C 2,2 C 92 % 0 lf 1003,0 hPa 0,0 l/m 0 min 0 min 0 W/m 6,3 km/h (2 Bft) 100,00 %
12.02.2016 03:52 3,2 C 3,3 C 2,2 C 92 % 0 lf 1002,9 hPa 0,0 l/m 0 min 0 min 0 W/m 4,2 km/h (1 Bft) 100,00 %
12.02.2016 03:54 3,2 C 3,3 C 2,2 C 92 % 0 lf 1002,9 hPa 0,0 l/m 0 min 0 min 0 W/m 6,3 km/h (2 Bft) 97,87 %
12.02.2016 03:56 3,2 C 3,3 C 2,2 C 92 % 0 lf 1003,0 hPa 0,0 l/m 0 min 0 min 0 W/m 6,3 km/h (2 Bft) 97,87 %
12.02.2016 03:58 3,2 C 3,3 C 2,2 C 92 % 0 lf 1002,9 hPa 0,0 l/m 0 min 0 min 0 W/m 6,3 km/h (2 Bft) 100,00 %
12.02.2016 04:00 3,1 C 3,3 C 2,2 C 92 % 0 lf 1002,8 hPa 0,0 l/m 0 min 0 min 0 W/m 8,4 km/h (2 Bft) 96,00 %
12.02.2016 04:02 3,1 C 3,3 C 2,2 C 92 % 0 lf 1002,9 hPa 0,0 l/m 0 min 0 min 0 W/m 4,2 km/h (1 Bft) 86,67 %
12.02.2016 04:04 3,1 C 3,3 C 2,2 C 92 % 0 lf 1002,9 hPa 0,0 l/m 0 min 0 min 0 W/m 6,3 km/h (2 Bft) 97,37 %
12.02.2016 04:06 3,1 C 3,3 C 2,2 C 92 % 0 lf 1002,8 hPa 0,0 l/m 0 min 0 min 0 W/m 8,4 km/h (2 Bft) 100,00 %
12.02.2016 04:08 3,1 C 3,3 C 2,2 C 92 % 0 lf 1002,8 hPa 0,0 l/m 0 min 0 min 0 W/m 8,4 km/h (2 Bft) 93,62 %
12.02.2016 04:10 3,1 C 3,3 C 2,2 C 92 % 0 lf 1002,8 hPa 0,0 l/m 0 min 0 min 0 W/m 8,4 km/h (2 Bft) 100,00 %
12.02.2016 04:12 3,1 C 3,3 C 2,2 C 92 % 0 lf 1002,8 hPa 0,0 l/m 0 min 0 min 0 W/m 6,3 km/h (2 Bft) 100,00 %
12.02.2016 04:14 3,1 C 3,3 C 2,2 C 92 % 0 lf 1002,9 hPa 0,0 l/m 0 min 0 min 0 W/m 10,5 km/h (2 Bft) 97,73 %
12.02.2016 04:16 3,1 C 3,3 C 2,2 C 92 % 0 lf 1002,8 hPa 0,0 l/m 0 min 0 min 0 W/m 8,4 km/h (2 Bft) 95,74 %
12.02.2016 04:18 3,1 C 3,3 C 2,2 C 92 % 0 lf 1002,8 hPa 0,0 l/m 0 min 0 min 0 W/m 8,4 km/h (2 Bft) 97,87 %
12.02.2016 04:20 3,1 C 3,3 C 2,2 C 92 % 0 lf 1002,8 hPa 0,0 l/m 0 min 0 min 0 W/m 6,3 km/h (2 Bft) 95,74 %
12.02.2016 04:22 3,1 C 3,3 C 2,2 C 92 % 0 lf 1002,8 hPa 0,0 l/m 0 min 0 min 0 W/m 6,3 km/h (2 Bft) 93,62 %
12.02.2016 04:24 3,2 C 3,3 C 2,2 C 92 % 0 lf 1002,8 hPa 0,0 l/m 0 min 0 min 0 W/m 6,3 km/h (2 Bft) 97,96 %
12.02.2016 04:26 3,1 C 3,3 C 2,2 C 93 % 0 lf 1002,8 hPa 0,0 l/m 0 min 0 min 0 W/m 10,5 km/h (2 Bft) 97,87 %
12.02.2016 04:28 3,2 C 3,3 C 2,2 C 93 % 0 lf 1002,8 hPa 0,0 l/m 0 min 0 min 0 W/m 14,6 km/h (3 Bft) 95,74 %
12.02.2016 04:30 3,2 C 3,3 C 2,2 C 93 % 0 lf 1002,8 hPa 0,0 l/m 0 min 0 min 0 W/m 12,6 km/h (3 Bft) 94,34 %
12.02.2016 04:32 3,2 C 3,3 C 2,2 C 93 % 0 lf 1002,8 hPa 0,0 l/m 0 min 0 min 0 W/m 10,5 km/h (2 Bft) 95,74 %
12.02.2016 04:34 3,2 C 3,3 C 2,2 C 93 % 0 lf 1002,8 hPa 0,0 l/m 0 min 0 min 0 W/m 12,6 km/h (3 Bft) 95,65 %
12.02.2016 04:36 3,2 C 3,3 C 2,2 C 93 % 0 lf 1002,7 hPa 0,0 l/m 0 min 0 min 0 W/m 10,5 km/h (2 Bft) 93,62 %
12.02.2016 04:38 3,2 C 3,3 C 2,2 C 93 % 0 lf 1002,7 hPa 0,0 l/m 0 min 0 min 0 W/m 6,3 km/h (2 Bft) 95,74 %
12.02.2016 04:40 3,2 C 3,3 C 2,2 C 93 % 0 lf 1002,6 hPa 0,0 l/m 0 min 0 min 0 W/m 8,4 km/h (2 Bft) 95,74 %
12.02.2016 04:42 3,2 C 3,3 C 2,2 C 93 % 0 lf 1002,7 hPa 0,0 l/m 0 min 0 min 0 W/m 8,4 km/h (2 Bft) 93,62 %
12.02.2016 04:44 3,2 C 3,3 C 2,2 C 93 % 0 lf 1002,6 hPa 0,0 l/m 0 min 0 min 0 W/m 10,5 km/h (2 Bft) 86,84 %
12.02.2016 04:46 3,2 C 3,3 C 2,2 C 93 % 0 lf 1002,6 hPa 0,0 l/m 0 min 0 min 0 W/m 6,3 km/h (2 Bft) 95,65 %
12.02.2016 04:48 3,2 C 3,3 C 2,2 C 93 % 0 lf 1002,6 hPa 0,0 l/m 0 min 0 min 0 W/m 6,3 km/h (2 Bft) 93,62 %
12.02.2016 04:50 3,2 C 3,3 C 2,2 C 93 % 0 lf 1002,6 hPa 0,0 l/m 0 min 0 min 0 W/m 6,3 km/h (2 Bft) 95,74 %
12.02.2016 04:52 3,2 C 3,3 C 2,2 C 93 % 0 lf 1002,5 hPa 0,0 l/m 0 min 0 min 0 W/m 6,3 km/h (2 Bft) 95,74 %
12.02.2016 04:54 3,2 C 3,3 C 2,2 C 93 % 0 lf 1002,6 hPa 0,0 l/m 0 min 0 min 0 W/m 10,5 km/h (2 Bft) 96,00 %
12.02.2016 04:56 3,2 C 3,3 C 2,2 C 93 % 0 lf 1002,6 hPa 0,0 l/m 0 min 0 min 0 W/m 6,3 km/h (2 Bft) 97,83 %
12.02.2016 04:58 3,2 C 3,3 C 2,2 C 93 % 0 lf 1002,6 hPa 0,0 l/m 0 min 0 min 0 W/m 8,4 km/h (2 Bft) 89,36 %
12.02.2016 05:00 3,2 C 3,3 C 2,2 C 93 % 0 lf 1002,6 hPa 0,0 l/m 0 min 0 min 0 W/m 8,4 km/h (2 Bft) 94,00 %
12.02.2016 05:02 3,2 C 3,3 C 2,2 C 93 % 0 lf 1002,5 hPa 0,0 l/m 0 min 0 min 0 W/m 8,4 km/h (2 Bft) 95,74 %
12.02.2016 05:04 3,2 C 3,3 C 2,2 C 93 % 0 lf 1002,5 hPa 0,0 l/m 0 min 0 min 0 W/m 8,4 km/h (2 Bft) 97,37 %
12.02.2016 05:06 3,2 C 3,3 C 2,2 C 93 % 0 lf 1002,5 hPa 0,0 l/m 0 min 0 min 0 W/m 8,4 km/h (2 Bft) 95,74 %
12.02.2016 05:08 3,2 C 3,3 C 2,2 C 93 % 0 lf 1002,5 hPa 0,0 l/m 0 min 0 min 0 W/m 6,3 km/h (2 Bft) 93,62 %
12.02.2016 05:10 3,2 C 3,3 C 2,2 C 93 % 0 lf 1002,5 hPa 0,0 l/m 0 min 0 min 0 W/m 8,4 km/h (2 Bft) 93,48 %
12.02.2016 05:12 3,2 C 3,3 C 2,2 C 93 % 0 lf 1002,5 hPa 0,0 l/m 0 min 0 min 0 W/m 8,4 km/h (2 Bft) 95,74 %
12.02.2016 05:14 3,2 C 3,3 C 2,2 C 93 % 0 lf 1002,5 hPa 0,0 l/m 0 min 0 min 0 W/m 8,4 km/h (2 Bft) 96,43 %
12.02.2016 05:16 3,2 C 3,3 C 2,2 C 93 % 0 lf 1002,5 hPa 0,0 l/m 0 min 0 min 0 W/m 8,4 km/h (2 Bft) 94,74 %
12.02.2016 05:18 3,2 C 3,3 C 2,2 C 93 % 0 lf 1002,5 hPa 0,0 l/m 0 min 0 min 0 W/m 8,4 km/h (2 Bft) 95,74 %
12.02.2016 05:20 3,2 C 3,3 C 2,2 C 93 % 0 lf 1002,4 hPa 0,0 l/m 0 min 0 min 0 W/m 12,6 km/h (3 Bft) 96,15 %
12.02.2016 05:22 3,2 C 3,3 C 2,2 C 93 % 0 lf 1002,5 hPa 0,0 l/m 0 min 0 min 0 W/m 4,2 km/h (1 Bft) 98,00 %
12.02.2016 05:24 3,2 C 3,3 C 2,2 C 93 % 0 lf 1002,5 hPa 0,0 l/m 0 min 0 min 0 W/m 4,2 km/h (1 Bft) 94,00 %
12.02.2016 05:26 3,2 C 3,3 C 2,2 C 93 % 0 lf 1002,4 hPa 0,0 l/m 0 min 0 min 0 W/m 6,3 km/h (2 Bft) 97,87 %
12.02.2016 05:28 3,2 C 3,3 C 2,2 C 93 % 0 lf 1002,4 hPa 0,0 l/m 0 min 0 min 0 W/m 6,3 km/h (2 Bft) 95,74 %
12.02.2016 05:30 3,2 C 3,3 C 2,2 C 93 % 0 lf 1002,4 hPa 0,0 l/m 0 min 0 min 0 W/m 6,3 km/h (2 Bft) 95,65 %
12.02.2016 05:32 3,2 C 3,3 C 2,2 C 93 % 0 lf 1002,4 hPa 0,0 l/m 0 min 0 min 0 W/m 6,3 km/h (2 Bft) 97,87 %
12.02.2016 05:34 3,2 C 3,3 C 2,2 C 93 % 0 lf 1002,4 hPa 0,0 l/m 0 min 0 min 0 W/m 6,3 km/h (2 Bft) 95,74 %
12.02.2016 05:36 3,2 C 3,3 C 2,2 C 93 % 0 lf 1002,3 hPa 0,0 l/m 0 min 0 min 0 W/m 4,2 km/h (1 Bft) 97,87 %
12.02.2016 05:38 3,2 C 3,3 C 2,2 C 93 % 0 lf 1002,3 hPa 0,0 l/m 0 min 0 min 0 W/m 2,1 km/h (1 Bft) 94,74 %
12.02.2016 05:40 3,2 C 3,3 C 2,2 C 93 % 0 lf 1002,3 hPa 0,0 l/m 0 min 0 min 0 W/m 6,3 km/h (2 Bft) 93,62 %
12.02.2016 05:42 3,2 C 3,3 C 2,2 C 93 % 0 lf 1002,3 hPa 0,0 l/m 0 min 0 min 0 W/m 4,2 km/h (1 Bft) 97,87 %
12.02.2016 05:44 3,2 C 3,3 C 2,2 C 93 % 0 lf 1002,3 hPa 0,0 l/m 0 min 0 min 0 W/m 4,2 km/h (1 Bft) 93,48 %
12.02.2016 05:46 3,2 C 3,3 C 2,2 C 93 % 0 lf 1002,3 hPa 0,0 l/m 0 min 0 min 0 W/m 4,2 km/h (1 Bft) 96,23 %
12.02.2016 05:48 3,2 C 3,3 C 2,2 C 93 % 0 lf 1002,3 hPa 0,0 l/m 0 min 0 min 0 W/m 6,3 km/h (2 Bft) 93,62 %
12.02.2016 05:50 3,2 C 3,3 C 2,2 C 93 % 0 lf 1002,3 hPa 0,0 l/m 0 min 0 min 0 W/m 6,3 km/h (2 Bft) 96,00 %
12.02.2016 05:52 3,2 C 3,3 C 2,2 C 93 % 0 lf 1002,2 hPa 0,0 l/m 0 min 0 min 0 W/m 6,3 km/h (2 Bft) 95,65 %
12.02.2016 05:54 3,2 C 3,3 C 2,2 C 93 % 0 lf 1002,2 hPa 0,0 l/m 0 min 0 min 0 W/m 6,3 km/h (2 Bft) 94,74 %
12.02.2016 05:56 3,2 C 3,3 C 2,2 C 93 % 0 lf 1002,2 hPa 0,0 l/m 0 min 0 min 0 W/m 6,3 km/h (2 Bft) 95,74 %
12.02.2016 05:58 3,2 C 3,3 C 2,2 C 93 % 0 lf 1002,2 hPa 0,0 l/m 0 min 0 min 0 W/m 8,4 km/h (2 Bft) 97,87 %
12.02.2016 06:00 3,2 C 3,3 C 1,7 C 93 % 0 lf 1002,1 hPa 0,0 l/m 0 min 0 min 0 W/m 6,3 km/h (2 Bft) 95,74 %
12.02.2016 06:02 3,2 C 3,3 C 1,7 C 93 % 0 lf 1002,2 hPa 0,0 l/m 0 min 0 min 0 W/m 6,3 km/h (2 Bft) 97,87 %
12.02.2016 06:04 3,2 C 3,3 C 1,7 C 93 % 0 lf 1002,1 hPa 0,0 l/m 0 min 0 min 0 W/m 6,3 km/h (2 Bft) 97,73 %
12.02.2016 06:06 3,2 C 3,3 C 1,7 C 93 % 0 lf 1002,1 hPa 0,0 l/m 0 min 0 min 0 W/m 8,4 km/h (2 Bft) 96,23 %
12.02.2016 06:08 3,2 C 3,3 C 1,7 C 93 % 0 lf 1002,1 hPa 0,0 l/m 0 min 0 min 0 W/m 6,3 km/h (2 Bft) 94,00 %
12.02.2016 06:10 3,2 C 3,3 C 1,7 C 93 % 0 lf 1002,0 hPa 0,0 l/m 0 min 0 min 0 W/m 8,4 km/h (2 Bft) 94,59 %
12.02.2016 06:12 3,2 C 3,3 C 1,7 C 93 % 0 lf 1002,1 hPa 0,0 l/m 0 min 0 min 0 W/m 6,3 km/h (2 Bft) 95,74 %
12.02.2016 06:14 3,2 C 3,3 C 1,7 C 93 % 0 lf 1002,0 hPa 0,0 l/m 0 min 0 min 0 W/m 6,3 km/h (2 Bft) 93,62 %
12.02.2016 06:16 3,1 C 3,3 C 1,7 C 93 % 0 lf 1002,0 hPa 0,0 l/m 0 min 0 min 0 W/m 6,3 km/h (2 Bft) 95,74 %
12.02.2016 06:18 3,1 C 3,3 C 1,7 C 93 % 0 lf 1002,0 hPa 0,0 l/m 0 min 0 min 0 W/m 6,3 km/h (2 Bft) 95,74 %
12.02.2016 06:20 3,1 C 3,3 C 1,7 C 93 % 0 lf 1002,0 hPa 0,0 l/m 0 min 0 min 0 W/m 8,4 km/h (2 Bft) 92,45 %
12.02.2016 06:22 3,1 C 3,3 C 1,7 C 93 % 0 lf 1002,0 hPa 0,0 l/m 0 min 0 min 0 W/m 8,4 km/h (2 Bft) 93,62 %
12.02.2016 06:24 3,1 C 3,3 C 1,7 C 93 % 0 lf 1001,9 hPa 0,0 l/m 0 min 0 min 0 W/m 6,3 km/h (2 Bft) 95,74 %
12.02.2016 06:26 3,1 C 3,3 C 1,7 C 93 % 0 lf 1001,9 hPa 0,0 l/m 0 min 0 min 0 W/m 8,4 km/h (2 Bft) 93,62 %
12.02.2016 06:28 3,1 C 3,3 C 1,7 C 93 % 0 lf 1002,0 hPa 0,0 l/m 0 min 0 min 0 W/m 6,3 km/h (2 Bft) 95,65 %
12.02.2016 06:30 3,1 C 2,8 C 1,7 C 93 % 0 lf 1001,9 hPa 0,0 l/m 0 min 0 min 0 W/m 10,5 km/h (2 Bft) 93,62 %
12.02.2016 06:32 3,0 C 2,8 C 1,7 C 93 % 0 lf 1001,9 hPa 0,0 l/m 0 min 0 min 0 W/m 8,4 km/h (2 Bft) 95,74 %
12.02.2016 06:34 3,0 C 2,8 C 1,7 C 93 % 0 lf 1001,9 hPa 0,0 l/m 0 min 0 min 0 W/m 8,4 km/h (2 Bft) 95,74 %
12.02.2016 06:36 3,0 C 2,8 C 1,7 C 93 % 0 lf 1001,9 hPa 0,0 l/m 0 min 0 min 0 W/m 8,4 km/h (2 Bft) 93,62 %
12.02.2016 06:38 3,0 C 2,8 C 1,7 C 93 % 0 lf 1001,9 hPa 0,0 l/m 0 min 0 min 0 W/m 8,4 km/h (2 Bft) 98,00 %
12.02.2016 06:40 2,9 C 2,8 C 1,7 C 93 % 0 lf 1001,9 hPa 0,0 l/m 0 min 0 min 0 W/m 8,4 km/h (2 Bft) 97,30 %
12.02.2016 06:42 2,9 C 2,8 C 1,1 C 93 % 0 lf 1001,8 hPa 0,0 l/m 0 min 0 min 0 W/m 8,4 km/h (2 Bft) 98,25 %
12.02.2016 06:44 2,9 C 2,8 C 1,7 C 93 % 0 lf 1001,7 hPa 0,0 l/m 0 min 0 min 0 W/m 8,4 km/h (2 Bft) 94,44 %
12.02.2016 06:46 2,9 C 2,8 C 1,7 C 93 % 0 lf 1001,7 hPa 0,0 l/m 0 min 0 min 0 W/m 6,3 km/h (2 Bft) 93,62 %
12.02.2016 06:48 2,9 C 2,8 C 1,7 C 93 % 0 lf 1001,7 hPa 0,0 l/m 0 min 0 min 0 W/m 8,4 km/h (2 Bft) 95,74 %
12.02.2016 06:50 2,9 C 2,8 C 1,1 C 93 % 0 lf 1001,8 hPa 0,0 l/m 0 min 0 min 0 W/m 4,2 km/h (1 Bft) 95,74 %
12.02.2016 06:52 2,8 C 2,8 C 1,7 C 93 % 0 lf 1001,8 hPa 0,0 l/m 0 min 0 min 0 W/m 6,3 km/h (2 Bft) 97,87 %
12.02.2016 06:54 2,8 C 2,8 C 1,7 C 93 % 0 lf 1001,7 hPa 0,0 l/m 0 min 0 min 0 W/m 6,3 km/h (2 Bft) 97,83 %
12.02.2016 06:56 2,8 C 2,8 C 1,7 C 93 % 0 lf 1001,8 hPa 0,0 l/m 0 min 0 min 0 W/m 6,3 km/h (2 Bft) 97,87 %
12.02.2016 06:58 2,8 C 2,8 C 1,7 C 93 % 0 lf 1001,7 hPa 0,0 l/m 0 min 0 min 0 W/m 6,3 km/h (2 Bft) 95,74 %
12.02.2016 07:00 2,8 C 3,3 C 1,7 C 93 % 0 lf 1001,7 hPa 0,0 l/m 0 min 0 min 0 W/m 8,4 km/h (2 Bft) 98,00 %
12.02.2016 07:02 2,8 C 3,3 C 1,7 C 93 % 0 lf 1001,7 hPa 0,0 l/m 0 min 0 min 0 W/m 8,4 km/h (2 Bft) 100,00 %
12.02.2016 07:04 2,8 C 2,8 C 1,7 C 93 % 0 lf 1001,7 hPa 0,0 l/m 0 min 0 min 0 W/m 10,5 km/h (2 Bft) 97,87 %
12.02.2016 07:06 2,8 C 2,8 C 1,7 C 93 % 0 lf 1001,6 hPa 0,0 l/m 0 min 0 min 0 W/m 6,3 km/h (2 Bft) 97,83 %
12.02.2016 07:08 2,8 C 2,8 C 1,7 C 93 % 0 lf 1001,7 hPa 0,0 l/m 0 min 0 min 0 W/m 8,4 km/h (2 Bft) 95,74 %
12.02.2016 07:10 2,8 C 2,8 C 1,7 C 93 % 0 lf 1001,7 hPa 0,0 l/m 0 min 0 min 0 W/m 6,3 km/h (2 Bft) 97,67 %
12.02.2016 07:12 2,8 C 2,8 C 1,7 C 93 % 0 lf 1001,6 hPa 0,0 l/m 0 min 0 min 0 W/m 6,3 km/h (2 Bft) 97,87 %
12.02.2016 07:14 2,8 C 2,8 C 1,7 C 93 % 0 lf 1001,7 hPa 0,0 l/m 0 min 0 min 0 W/m 12,6 km/h (3 Bft) 96,00 %
12.02.2016 07:16 2,8 C 3,3 C 1,7 C 93 % 0 lf 1001,6 hPa 0,0 l/m 0 min 0 min 0 W/m 8,4 km/h (2 Bft) 89,13 %
12.02.2016 07:18 2,8 C 3,3 C 1,7 C 93 % 0 lf 1001,6 hPa 0,0 l/m 0 min 0 min 0 W/m 8,4 km/h (2 Bft) 95,74 %
12.02.2016 07:20 2,8 C 3,3 C 1,7 C 93 % 0 lf 1001,6 hPa 0,0 l/m 0 min 0 min 0 W/m 6,3 km/h (2 Bft) 97,87 %
12.02.2016 07:22 2,8 C 3,3 C 1,7 C 93 % 0 lf 1001,6 hPa 0,0 l/m 0 min 0 min 0 W/m 6,3 km/h (2 Bft) 95,74 %
12.02.2016 07:24 2,8 C 3,3 C 1,7 C 93 % 0 lf 1001,6 hPa 0,0 l/m 0 min 0 min 0 W/m 8,4 km/h (2 Bft) 97,92 %
12.02.2016 07:26 2,7 C 3,3 C 1,7 C 93 % 0 lf 1001,6 hPa 0,0 l/m 0 min 0 min 0 W/m 8,4 km/h (2 Bft) 97,87 %
12.02.2016 07:28 2,8 C 2,8 C 1,7 C 93 % 0 lf 1001,6 hPa 0,0 l/m 0 min 0 min 0 W/m 6,3 km/h (2 Bft) 100,00 %
12.02.2016 07:30 2,7 C 2,8 C 1,7 C 93 % 0 lf 1001,6 hPa 0,0 l/m 0 min 0 min 0 W/m 10,5 km/h (2 Bft) 96,00 %
12.02.2016 07:32 2,8 C 3,3 C 1,7 C 93 % 0 lf 1001,6 hPa 0,0 l/m 0 min 0 min 0 W/m 8,4 km/h (2 Bft) 95,74 %
12.02.2016 07:34 2,7 C 3,3 C 1,7 C 93 % 0 lf 1001,6 hPa 0,0 l/m 0 min 0 min 0 W/m 8,4 km/h (2 Bft) 95,74 %
12.02.2016 07:36 2,7 C 3,3 C 1,7 C 93 % 0 lf 1001,6 hPa 0,0 l/m 0 min 0 min 0 W/m 4,2 km/h (1 Bft) 97,87 %
12.02.2016 07:38 2,7 C 3,3 C 1,7 C 93 % 0 lf 1001,6 hPa 0,0 l/m 0 min 0 min 0 W/m 8,4 km/h (2 Bft) 97,87 %
12.02.2016 07:40 2,7 C 3,3 C 1,7 C 93 % 0 lf 1001,5 hPa 0,0 l/m 0 min 0 min 0 W/m 12,6 km/h (3 Bft) 97,83 %
12.02.2016 07:42 2,7 C 3,3 C 1,7 C 93 % 0 lf 1001,6 hPa 0,0 l/m 0 min 0 min 0 W/m 8,4 km/h (2 Bft) 93,62 %
12.02.2016 07:44 2,7 C 3,3 C 1,7 C 93 % 0 lf 1001,5 hPa 0,0 l/m 0 min 0 min 0 W/m 6,3 km/h (2 Bft) 95,74 %
12.02.2016 07:46 2,7 C 3,3 C 1,7 C 93 % 0 lf 1001,6 hPa 0,0 l/m 0 min 0 min 5 W/m 6,3 km/h (2 Bft) 95,83 %
12.02.2016 07:48 2,7 C 3,3 C 1,7 C 93 % 0 lf 1001,5 hPa 0,0 l/m 0 min 0 min 5 W/m 8,4 km/h (2 Bft) 97,87 %
12.02.2016 07:50 2,7 C 3,3 C 1,7 C 93 % 0 lf 1001,5 hPa 0,0 l/m 0 min 0 min 5 W/m 6,3 km/h (2 Bft) 95,74 %
12.02.2016 07:52 2,7 C 3,3 C 1,7 C 93 % 0 lf 1001,5 hPa 0,0 l/m 0 min 0 min 6 W/m 6,3 km/h (2 Bft) 95,65 %
12.02.2016 07:54 2,7 C 3,3 C 1,7 C 93 % 0 lf 1001,5 hPa 0,0 l/m 0 min 0 min 7 W/m 6,3 km/h (2 Bft) 91,49 %
12.02.2016 07:56 2,7 C 2,8 C 1,7 C 93 % 0 lf 1001,5 hPa 0,0 l/m 0 min 0 min 7 W/m 8,4 km/h (2 Bft) 95,35 %
12.02.2016 07:58 2,7 C 3,3 C 1,7 C 93 % 0 lf 1001,5 hPa 0,0 l/m 0 min 0 min 9 W/m 8,4 km/h (2 Bft) 96,00 %
12.02.2016 08:00 2,7 C 2,8 C 1,7 C 93 % 0 lf 1001,4 hPa 0,0 l/m 0 min 0 min 9 W/m 8,4 km/h (2 Bft) 89,36 %
12.02.2016 08:02 2,7 C 2,8 C 1,7 C 93 % 0 lf 1001,4 hPa 0,0 l/m 0 min 0 min 11 W/m 8,4 km/h (2 Bft) 95,92 %
12.02.2016 08:04 2,7 C 2,8 C 1,7 C 93 % 0 lf 1001,4 hPa 0,0 l/m 0 min 0 min 11 W/m 6,3 km/h (2 Bft) 94,00 %
12.02.2016 08:06 2,7 C 2,8 C 1,7 C 93 % 0 lf 1001,4 hPa 0,0 l/m 0 min 0 min 12 W/m 8,4 km/h (2 Bft) 94,44 %
12.02.2016 08:08 2,7 C 2,8 C 1,7 C 93 % 0 lf 1001,4 hPa 0,0 l/m 0 min 0 min 12 W/m 6,3 km/h (2 Bft) 97,87 %
12.02.2016 08:10 2,7 C 2,8 C 1,7 C 93 % 0 lf 1001,4 hPa 0,0 l/m 0 min 0 min 15 W/m 10,5 km/h (2 Bft) 93,62 %
12.02.2016 08:12 2,7 C 2,8 C 1,7 C 93 % 0 lf 1001,4 hPa 0,0 l/m 0 min 0 min 16 W/m 6,3 km/h (2 Bft) 94,55 %
12.02.2016 08:14 2,7 C 2,8 C 1,7 C 93 % 0 lf 1001,4 hPa 0,0 l/m 0 min 0 min 18 W/m 8,4 km/h (2 Bft) 93,88 %
12.02.2016 08:16 2,7 C 2,8 C 1,7 C 93 % 0 lf 1001,3 hPa 0,0 l/m 0 min 0 min 19 W/m 8,4 km/h (2 Bft) 94,44 %
12.02.2016 08:18 2,7 C 3,3 C 1,7 C 93 % 0 lf 1001,3 hPa 0,0 l/m 0 min 0 min 21 W/m 10,5 km/h (2 Bft) 93,62 %
12.02.2016 08:20 2,7 C 3,3 C 1,7 C 93 % 0 lf 1001,3 hPa 0,0 l/m 0 min 0 min 21 W/m 10,5 km/h (2 Bft) 94,55 %
12.02.2016 08:22 2,7 C 3,3 C 1,7 C 93 % 0 lf 1001,3 hPa 0,0 l/m 0 min 0 min 21 W/m 8,4 km/h (2 Bft) 95,74 %
12.02.2016 08:24 2,7 C 3,3 C 1,7 C 93 % 0 lf 1001,3 hPa 0,0 l/m 0 min 0 min 21 W/m 10,5 km/h (2 Bft) 95,92 %
12.02.2016 08:26 2,7 C 3,3 C 1,7 C 93 % 0 lf 1001,3 hPa 0,0 l/m 0 min 0 min 19 W/m 10,5 km/h (2 Bft) 94,59 %
12.02.2016 08:28 2,7 C 3,3 C 1,7 C 93 % 0 lf 1001,2 hPa 0,0 l/m 0 min 0 min 19 W/m 10,5 km/h (2 Bft) 91,30 %
12.02.2016 08:30 2,7 C 3,3 C 1,7 C 93 % 0 lf 1001,3 hPa 0,0 l/m 0 min 0 min 19 W/m 8,4 km/h (2 Bft) 97,87 %
12.02.2016 08:32 2,7 C 3,3 C 1,7 C 93 % 0 lf 1001,2 hPa 0,0 l/m 0 min 0 min 19 W/m 14,6 km/h (3 Bft) 96,36 %
12.02.2016 08:34 2,7 C 3,3 C 2,2 C 93 % 0 lf 1001,2 hPa 0,0 l/m 0 min 0 min 21 W/m 16,7 km/h (3 Bft) 98,00 %
12.02.2016 08:36 2,7 C 3,3 C 2,2 C 93 % 0 lf 1001,2 hPa 0,0 l/m 0 min 0 min 21 W/m 16,7 km/h (3 Bft) 94,44 %
12.02.2016 08:38 2,7 C 3,3 C 2,2 C 92 % 0 lf 1001,1 hPa 0,0 l/m 0 min 0 min 21 W/m 14,6 km/h (3 Bft) 97,87 %
12.02.2016 08:40 2,7 C 3,3 C 2,2 C 92 % 0 lf 1001,1 hPa 0,0 l/m 0 min 0 min 24 W/m 12,6 km/h (3 Bft) 100,00 %
12.02.2016 08:42 2,7 C 3,3 C 2,2 C 92 % 0 lf 1001,0 hPa 0,0 l/m 0 min 0 min 25 W/m 12,6 km/h (3 Bft) 100,00 %
12.02.2016 08:44 2,7 C 3,3 C 2,2 C 92 % 0 lf 1001,0 hPa 0,0 l/m 0 min 0 min 27 W/m 10,5 km/h (2 Bft) 94,00 %
12.02.2016 08:46 2,7 C 3,3 C 2,2 C 92 % 0 lf 1001,0 hPa 0,0 l/m 0 min 0 min 30 W/m 14,6 km/h (3 Bft) 94,44 %
12.02.2016 08:48 2,7 C 3,3 C 2,2 C 92 % 0 lf 1000,9 hPa 0,0 l/m 0 min 0 min 30 W/m 18,8 km/h (3 Bft) 100,00 %
12.02.2016 08:50 2,7 C 3,3 C 2,2 C 92 % 0 lf 1001,0 hPa 0,0 l/m 0 min 0 min 32 W/m 16,7 km/h (3 Bft) 96,30 %
12.02.2016 08:52 2,8 C 3,3 C 2,2 C 92 % 0 lf 1000,9 hPa 0,0 l/m 0 min 0 min 33 W/m 10,5 km/h (2 Bft) 94,00 %
12.02.2016 08:54 2,7 C 3,3 C 2,2 C 92 % 0 lf 1000,9 hPa 0,0 l/m 0 min 0 min 33 W/m 16,7 km/h (3 Bft) 97,22 %
12.02.2016 08:56 2,8 C 3,3 C 2,2 C 92 % 0 lf 1000,9 hPa 0,0 l/m 0 min 0 min 35 W/m 18,8 km/h (3 Bft) 95,74 %
12.02.2016 08:58 2,8 C 3,3 C 2,2 C 92 % 0 lf 1000,9 hPa 0,0 l/m 0 min 0 min 37 W/m 12,6 km/h (3 Bft) 100,00 %
12.02.2016 09:00 2,8 C 3,3 C 2,2 C 92 % 0 lf 1000,9 hPa 0,0 l/m 0 min 0 min 40 W/m 12,6 km/h (3 Bft) 92,00 %
12.02.2016 09:02 2,8 C 3,3 C 2,2 C 92 % 0 lf 1000,9 hPa 0,0 l/m 0 min 0 min 41 W/m 10,5 km/h (2 Bft) 100,00 %
12.02.2016 09:04 2,8 C 3,3 C 2,2 C 92 % 0 lf 1000,8 hPa 0,0 l/m 0 min 0 min 44 W/m 12,6 km/h (3 Bft) 100,00 %
12.02.2016 09:06 2,8 C 3,3 C 2,2 C 92 % 0 lf 1000,9 hPa 0,0 l/m 0 min 0 min 46 W/m 18,8 km/h (3 Bft) 100,00 %
12.02.2016 09:08 2,8 C 3,3 C 2,2 C 92 % 0 lf 1000,9 hPa 0,0 l/m 0 min 0 min 50 W/m 16,7 km/h (3 Bft) 98,00 %
12.02.2016 09:10 2,8 C 3,3 C 2,2 C 92 % 0 lf 1000,8 hPa 0,0 l/m 0 min 0 min 55 W/m 14,6 km/h (3 Bft) 97,96 %
12.02.2016 09:12 2,8 C 3,3 C 2,2 C 92 % 0 lf 1000,8 hPa 0,0 l/m 0 min 0 min 62 W/m 18,8 km/h (3 Bft) 97,44 %
12.02.2016 09:14 2,8 C 3,9 C 2,2 C 92 % 0 lf 1000,8 hPa 0,0 l/m 0 min 0 min 70 W/m 14,6 km/h (3 Bft) 100,00 %
12.02.2016 09:16 2,8 C 3,9 C 2,2 C 92 % 0 lf 1000,8 hPa 0,0 l/m 0 min 0 min 76 W/m 16,7 km/h (3 Bft) 98,11 %
12.02.2016 09:18 2,8 C 3,9 C 2,2 C 91 % 0 lf 1000,8 hPa 0,0 l/m 0 min 0 min 78 W/m 16,7 km/h (3 Bft) 96,00 %
12.02.2016 09:20 2,8 C 3,9 C 2,8 C 91 % 0 lf 1000,8 hPa 0,0 l/m 0 min 0 min 78 W/m 16,7 km/h (3 Bft) 100,00 %
12.02.2016 09:22 2,9 C 3,9 C 2,8 C 91 % 0 lf 1000,8 hPa 0,0 l/m 0 min 0 min 76 W/m 18,8 km/h (3 Bft) 100,00 %
12.02.2016 09:24 2,9 C 3,9 C 2,8 C 91 % 0 lf 1000,8 hPa 0,0 l/m 0 min 0 min 77 W/m 18,8 km/h (3 Bft) 95,65 %
12.02.2016 09:26 2,9 C 3,9 C 2,8 C 91 % 0 lf 1000,8 hPa 0,0 l/m 0 min 0 min 81 W/m 23,0 km/h (4 Bft) 98,00 %
12.02.2016 09:28 2,9 C 3,9 C 2,8 C 91 % 0 lf 1000,8 hPa 0,0 l/m 0 min 0 min 86 W/m 16,7 km/h (3 Bft) 97,87 %
12.02.2016 09:30 2,9 C 3,9 C 2,8 C 91 % 0 lf 1000,8 hPa 0,0 l/m 0 min 0 min 91 W/m 23,0 km/h (4 Bft) 97,87 %
12.02.2016 09:32 3,0 C 3,9 C 2,8 C 91 % 0 lf 1000,7 hPa 0,0 l/m 0 min 0 min 95 W/m 23,0 km/h (4 Bft) 98,11 %
12.02.2016 09:34 3,0 C 4,4 C 2,8 C 91 % 0 lf 1000,7 hPa 0,0 l/m 0 min 0 min 106 W/m 20,9 km/h (4 Bft) 95,65 %
12.02.2016 09:36 3,1 C 5,0 C 2,8 C 90 % 0 lf 1000,6 hPa 0,0 l/m 2 min 0 min 146 W/m 23,0 km/h (4 Bft) 100,00 %
12.02.2016 09:38 3,1 C 5,6 C 3,3 C 91 % 0 lf 1000,6 hPa 0,0 l/m 2 min 0 min 169 W/m 20,9 km/h (4 Bft) 97,83 %
12.02.2016 09:40 3,1 C 5,6 C 3,3 C 90 % 0 lf 1000,5 hPa 0,0 l/m 2 min 0 min 149 W/m 16,7 km/h (3 Bft) 95,74 %
12.02.2016 09:42 3,2 C 5,0 C 3,3 C 90 % 0 lf 1000,5 hPa 0,0 l/m 2 min 0 min 164 W/m 18,8 km/h (3 Bft) 95,74 %
12.02.2016 09:44 3,2 C 5,6 C 3,3 C 90 % 0 lf 1000,5 hPa 0,0 l/m 2 min 0 min 175 W/m 18,8 km/h (3 Bft) 93,62 %
12.02.2016 09:46 3,2 C 6,7 C 3,3 C 90 % 0 lf 1000,5 hPa 0,0 l/m 2 min 0 min 218 W/m 29,3 km/h (5 Bft) 95,74 %
12.02.2016 09:48 3,3 C 7,8 C 3,3 C 90 % 0 lf 1000,5 hPa 0,0 l/m 2 min 0 min 267 W/m 23,0 km/h (4 Bft) 95,65 %
12.02.2016 09:50 3,4 C 8,3 C 3,3 C 90 % 0 lf 1000,4 hPa 0,0 l/m 2 min 0 min 280 W/m 23,0 km/h (4 Bft) 95,74 %
12.02.2016 09:52 3,5 C 7,8 C 3,3 C 89 % 0 lf 1000,4 hPa 0,0 l/m 2 min 0 min 279 W/m 23,0 km/h (4 Bft) 90,00 %
12.02.2016 09:54 3,6 C 8,3 C 3,3 C 89 % 0 lf 1000,4 hPa 0,0 l/m 2 min 0 min 283 W/m 20,9 km/h (4 Bft) 93,62 %
12.02.2016 09:56 3,7 C 8,9 C 3,3 C 89 % 0 lf 1000,3 hPa 0,0 l/m 2 min 0 min 286 W/m 23,0 km/h (4 Bft) 91,49 %
12.02.2016 09:58 3,8 C 8,3 C 3,9 C 89 % 0 lf 1000,4 hPa 0,0 l/m 2 min 0 min 295 W/m 23,0 km/h (4 Bft) 91,49 %
12.02.2016 10:00 3,9 C 8,3 C 4,4 C 88 % 0 lf 1000,4 hPa 0,0 l/m 2 min 0 min 313 W/m 14,6 km/h (3 Bft) 91,84 %
12.02.2016 10:02 4,0 C 8,3 C 5,6 C 88 % 0 lf 1000,4 hPa 0,0 l/m 2 min 0 min 324 W/m 20,9 km/h (4 Bft) 93,62 %
12.02.2016 10:04 4,1 C 8,3 C 5,0 C 87 % 0 lf 1000,4 hPa 0,0 l/m 2 min 0 min 325 W/m 20,9 km/h (4 Bft) 91,49 %
12.02.2016 10:06 4,2 C 8,9 C 5,0 C 87 % 0 lf 1000,3 hPa 0,0 l/m 2 min 0 min 344 W/m 27,2 km/h (4 Bft) 93,62 %
12.02.2016 10:08 4,3 C 10,0 C 5,0 C 87 % 0 lf 1000,4 hPa 0,0 l/m 2 min 0 min 354 W/m 23,0 km/h (4 Bft) 91,49 %
12.02.2016 10:10 4,4 C 10,0 C 5,0 C 87 % 0 lf 1000,4 hPa 0,0 l/m 2 min 0 min 361 W/m 27,2 km/h (4 Bft) 91,43 %
12.02.2016 10:12 4,4 C 9,4 C 4,4 C 86 % 0 lf 1000,3 hPa 0,0 l/m 2 min 0 min 370 W/m 29,3 km/h (5 Bft) 91,49 %
12.02.2016 10:14 4,5 C 8,9 C 4,4 C 86 % 0 lf 1000,3 hPa 0,0 l/m 2 min 0 min 366 W/m 29,3 km/h (5 Bft) 96,15 %
12.02.2016 10:16 4,6 C 9,4 C 4,4 C 85 % 0 lf 1000,3 hPa 0,0 l/m 2 min 0 min 355 W/m 25,1 km/h (4 Bft) 92,00 %
12.02.2016 10:18 4,7 C 9,4 C 4,4 C 85 % 0 lf 1000,2 hPa 0,0 l/m 2 min 0 min 346 W/m 25,1 km/h (4 Bft) 94,00 %
12.02.2016 10:20 4,7 C 8,9 C 4,4 C 84 % 0 lf 1000,2 hPa 0,0 l/m 2 min 0 min 339 W/m 25,1 km/h (4 Bft) 91,49 %
12.02.2016 10:22 4,8 C 8,3 C 3,9 C 84 % 0 lf 1000,2 hPa 0,0 l/m 2 min 0 min 328 W/m 27,2 km/h (4 Bft) 91,30 %
12.02.2016 10:24 4,8 C 9,4 C 3,9 C 83 % 0 lf 1000,2 hPa 0,0 l/m 2 min 0 min 321 W/m 27,2 km/h (4 Bft) 87,23 %
12.02.2016 10:26 4,8 C 8,9 C 3,9 C 83 % 0 lf 1000,1 hPa 0,0 l/m 2 min 0 min 319 W/m 25,1 km/h (4 Bft) 94,29 %
12.02.2016 10:28 4,9 C 9,4 C 3,9 C 83 % 0 lf 1000,1 hPa 0,0 l/m 2 min 0 min 319 W/m 31,4 km/h (5 Bft) 94,34 %
12.02.2016 10:30 4,9 C 9,4 C 3,9 C 82 % 0 lf 1000,1 hPa 0,0 l/m 2 min 0 min 316 W/m 25,1 km/h (4 Bft) 95,74 %
12.02.2016 10:32 4,9 C 9,4 C 3,9 C 82 % 0 lf 1000,1 hPa 0,0 l/m 2 min 0 min 315 W/m 25,1 km/h (4 Bft) 95,12 %
12.02.2016 10:34 5,0 C 8,9 C 3,9 C 82 % 0 lf 1000,1 hPa 0,0 l/m 2 min 0 min 313 W/m 20,9 km/h (4 Bft) 92,73 %
12.02.2016 10:36 5,0 C 8,3 C 3,3 C 82 % 0 lf 1000,1 hPa 0,0 l/m 2 min 0 min 314 W/m 27,2 km/h (4 Bft) 95,74 %
12.02.2016 10:38 5,0 C 8,3 C 3,3 C 82 % 0 lf 1000,1 hPa 0,0 l/m 2 min 0 min 312 W/m 23,0 km/h (4 Bft) 98,00 %
12.02.2016 10:40 5,0 C 10,0 C 3,9 C 82 % 0 lf 1000,1 hPa 0,0 l/m 2 min 0 min 317 W/m 16,7 km/h (3 Bft) 95,74 %
12.02.2016 10:42 5,1 C 9,4 C 3,9 C 82 % 0 lf 1000,1 hPa 0,0 l/m 2 min 0 min 319 W/m 25,1 km/h (4 Bft) 97,14 %
12.02.2016 10:44 5,1 C 8,9 C 3,9 C 82 % 0 lf 1000,1 hPa 0,0 l/m 2 min 0 min 324 W/m 33,5 km/h (5 Bft) 96,43 %
12.02.2016 10:46 5,1 C 8,9 C 3,9 C 82 % 0 lf 1000,0 hPa 0,0 l/m 2 min 0 min 326 W/m 27,2 km/h (4 Bft) 95,92 %
12.02.2016 10:48 5,2 C 8,9 C 3,9 C 81 % 0 lf 1000,0 hPa 0,0 l/m 2 min 0 min 331 W/m 23,0 km/h (4 Bft) 100,00 %
12.02.2016 10:50 5,2 C 8,3 C 3,9 C 81 % 0 lf 1000,0 hPa 0,0 l/m 2 min 0 min 332 W/m 29,3 km/h (5 Bft) 95,74 %
12.02.2016 10:52 5,2 C 8,3 C 3,9 C 81 % 0 lf 999,8 hPa 0,0 l/m 2 min 0 min 340 W/m 27,2 km/h (4 Bft) 98,00 %
12.02.2016 10:54 5,2 C 8,9 C 3,9 C 80 % 0 lf 999,9 hPa 0,0 l/m 2 min 0 min 341 W/m 27,2 km/h (4 Bft) 98,00 %
12.02.2016 10:56 5,2 C 9,4 C 3,9 C 81 % 0 lf 999,8 hPa 0,0 l/m 2 min 0 min 342 W/m 27,2 km/h (4 Bft) 97,83 %
12.02.2016 10:58 5,2 C 8,9 C 3,9 C 81 % 0 lf 999,9 hPa 0,0 l/m 2 min 0 min 346 W/m 27,2 km/h (4 Bft) 95,74 %
12.02.2016 11:00 5,2 C 9,4 C 3,9 C 80 % 0 lf 999,9 hPa 0,0 l/m 2 min 0 min 347 W/m 33,5 km/h (5 Bft) 98,00 %
12.02.2016 11:02 5,2 C 9,4 C 3,9 C 80 % 0 lf 999,8 hPa 0,0 l/m 2 min 0 min 349 W/m 29,3 km/h (5 Bft) 97,37 %
12.02.2016 11:04 5,3 C 8,9 C 3,9 C 80 % 0 lf 999,9 hPa 0,0 l/m 2 min 0 min 354 W/m 27,2 km/h (4 Bft) 98,00 %
12.02.2016 11:06 5,3 C 8,9 C 3,9 C 79 % 0 lf 999,9 hPa 0,0 l/m 2 min 0 min 353 W/m 31,4 km/h (5 Bft) 93,62 %
12.02.2016 11:08 5,3 C 8,9 C 3,9 C 79 % 0 lf 999,8 hPa 0,0 l/m 2 min 0 min 356 W/m 20,9 km/h (4 Bft) 97,87 %
12.02.2016 11:10 5,3 C 9,4 C 3,9 C 79 % 0 lf 999,8 hPa 0,0 l/m 2 min 0 min 359 W/m 35,6 km/h (5 Bft) 95,35 %
12.02.2016 11:12 5,3 C 8,9 C 3,9 C 79 % 0 lf 999,8 hPa 0,0 l/m 2 min 0 min 363 W/m 33,5 km/h (5 Bft) 95,74 %
12.02.2016 11:14 5,3 C 8,9 C 3,9 C 79 % 0 lf 999,7 hPa 0,0 l/m 2 min 0 min 366 W/m 35,6 km/h (5 Bft) 94,00 %
12.02.2016 11:16 5,3 C 8,9 C 3,9 C 79 % 0 lf 999,7 hPa 0,0 l/m 2 min 0 min 368 W/m 31,4 km/h (5 Bft) 95,74 %
12.02.2016 11:18 5,3 C 9,4 C 3,9 C 79 % 0 lf 999,7 hPa 0,0 l/m 2 min 0 min 372 W/m 25,1 km/h (4 Bft) 97,87 %
12.02.2016 11:20 5,4 C 8,9 C 3,9 C 79 % 0 lf 999,7 hPa 0,0 l/m 2 min 0 min 371 W/m 31,4 km/h (5 Bft) 97,73 %
12.02.2016 11:22 5,4 C 10,0 C 3,9 C 79 % 0 lf 999,7 hPa 0,0 l/m 2 min 0 min 373 W/m 18,8 km/h (3 Bft) 97,83 %
12.02.2016 11:24 5,4 C 10,0 C 3,9 C 79 % 0 lf 999,6 hPa 0,0 l/m 2 min 0 min 374 W/m 20,9 km/h (4 Bft) 98,00 %
12.02.2016 11:26 5,4 C 9,4 C 3,9 C 79 % 0 lf 999,7 hPa 0,0 l/m 2 min 0 min 375 W/m 29,3 km/h (5 Bft) 100,00 %
12.02.2016 11:28 5,4 C 8,9 C 3,9 C 79 % 0 lf 999,7 hPa 0,0 l/m 2 min 0 min 380 W/m 20,9 km/h (4 Bft) 100,00 %
12.02.2016 11:30 5,5 C 9,4 C 3,9 C 79 % 0 lf 999,6 hPa 0,0 l/m 2 min 0 min 381 W/m 25,1 km/h (4 Bft) 100,00 %
12.02.2016 11:32 5,5 C 8,3 C 3,9 C 79 % 0 lf 999,7 hPa 0,0 l/m 2 min 0 min 383 W/m 23,0 km/h (4 Bft) 92,00 %
12.02.2016 11:34 5,5 C 8,3 C 3,9 C 79 % 0 lf 999,7 hPa 0,0 l/m 2 min 0 min 384 W/m 23,0 km/h (4 Bft) 95,65 %
12.02.2016 11:36 5,4 C 8,3 C 3,9 C 78 % 0 lf 999,7 hPa 0,0 l/m 2 min 0 min 390 W/m 25,1 km/h (4 Bft) 97,87 %
12.02.2016 11:38 5,4 C 8,9 C 3,9 C 78 % 0 lf 999,7 hPa 0,0 l/m 2 min 0 min 392 W/m 31,4 km/h (5 Bft) 100,00 %
12.02.2016 11:40 5,4 C 8,9 C 3,9 C 78 % 0 lf 999,7 hPa 0,0 l/m 2 min 0 min 391 W/m 27,2 km/h (4 Bft) 100,00 %
12.02.2016 11:42 5,4 C 8,9 C 4,4 C 78 % 0 lf 999,6 hPa 0,0 l/m 2 min 0 min 385 W/m 20,9 km/h (4 Bft) 100,00 %
12.02.2016 11:44 5,4 C 9,4 C 5,0 C 78 % 0 lf 999,6 hPa 0,0 l/m 2 min 0 min 399 W/m 23,0 km/h (4 Bft) 100,00 %
12.02.2016 11:46 5,5 C 9,4 C 5,0 C 78 % 0 lf 999,6 hPa 0,0 l/m 2 min 0 min 403 W/m 27,2 km/h (4 Bft) 97,87 %
12.02.2016 11:48 5,5 C 10,0 C 5,6 C 78 % 0 lf 999,6 hPa 0,0 l/m 2 min 0 min 402 W/m 25,1 km/h (4 Bft) 97,87 %
12.02.2016 11:50 5,6 C 10,6 C 5,6 C 78 % 0 lf 999,5 hPa 0,0 l/m 2 min 0 min 396 W/m 27,2 km/h (4 Bft) 100,00 %
12.02.2016 11:52 5,6 C 10,6 C 6,1 C 78 % 0 lf 999,5 hPa 0,0 l/m 2 min 0 min 397 W/m 27,2 km/h (4 Bft) 100,00 %
12.02.2016 11:54 5,7 C 10,6 C 6,1 C 78 % 0 lf 999,5 hPa 0,0 l/m 2 min 0 min 392 W/m 35,6 km/h (5 Bft) 97,87 %
12.02.2016 11:56 5,7 C 10,6 C 6,1 C 78 % 0 lf 999,5 hPa 0,0 l/m 2 min 0 min 374 W/m 27,2 km/h (4 Bft) 100,00 %
12.02.2016 11:58 5,8 C 9,4 C 6,1 C 78 % 0 lf 999,6 hPa 0,0 l/m 2 min 0 min 409 W/m 33,5 km/h (5 Bft) 100,00 %
12.02.2016 12:00 5,8 C 8,9 C 6,1 C 77 % 0 lf 999,6 hPa 0,0 l/m 2 min 0 min 410 W/m 20,9 km/h (4 Bft) 100,00 %
12.02.2016 12:02 5,8 C 10,0 C 5,6 C 77 % 0 lf 999,6 hPa 0,0 l/m 2 min 0 min 410 W/m 18,8 km/h (3 Bft) 98,00 %
12.02.2016 12:04 5,8 C 10,0 C 5,6 C 77 % 0 lf 999,5 hPa 0,0 l/m 2 min 0 min 425 W/m 27,2 km/h (4 Bft) 100,00 %
12.02.2016 12:06 5,8 C 10,0 C 5,6 C 77 % 0 lf 999,5 hPa 0,0 l/m 2 min 0 min 425 W/m 25,1 km/h (4 Bft) 100,00 %
12.02.2016 12:08 5,8 C 10,0 C 5,6 C 77 % 0 lf 999,4 hPa 0,0 l/m 2 min 0 min 422 W/m 23,0 km/h (4 Bft) 100,00 %
12.02.2016 12:10 5,8 C 11,1 C 5,6 C 77 % 0 lf 999,3 hPa 0,0 l/m 2 min 0 min 422 W/m 16,7 km/h (3 Bft) 100,00 %
12.02.2016 12:12 5,9 C 11,7 C 5,6 C 77 % 0 lf 999,3 hPa 0,0 l/m 2 min 0 min 416 W/m 16,7 km/h (3 Bft) 100,00 %
12.02.2016 12:14 5,9 C 11,7 C 5,6 C 77 % 0 lf 999,3 hPa 0,0 l/m 2 min 0 min 416 W/m 29,3 km/h (5 Bft) 97,87 %
12.02.2016 12:16 6,0 C 11,1 C 5,6 C 77 % 0 lf 999,3 hPa 0,0 l/m 2 min 0 min 426 W/m 27,2 km/h (4 Bft) 98,31 %
12.02.2016 12:18 6,1 C 11,1 C 5,6 C 77 % 0 lf 999,2 hPa 0,0 l/m 2 min 0 min 424 W/m 27,2 km/h (4 Bft) 97,14 %
12.02.2016 12:20 6,1 C 11,7 C 5,0 C 77 % 0 lf 999,2 hPa 0,0 l/m 2 min 0 min 421 W/m 27,2 km/h (4 Bft) 98,15 %
12.02.2016 12:22 6,2 C 12,2 C 5,0 C 76 % 0 lf 999,1 hPa 0,0 l/m 2 min 0 min 421 W/m 29,3 km/h (5 Bft) 96,00 %
12.02.2016 12:24 6,2 C 12,2 C 5,0 C 76 % 0 lf 999,1 hPa 0,0 l/m 2 min 0 min 421 W/m 29,3 km/h (5 Bft) 97,92 %
12.02.2016 12:26 6,3 C 12,8 C 5,6 C 76 % 0 lf 999,1 hPa 0,0 l/m 2 min 0 min 439 W/m 23,0 km/h (4 Bft) 95,74 %
12.02.2016 12:28 6,4 C 11,1 C 5,6 C 76 % 0 lf 999,1 hPa 0,0 l/m 2 min 0 min 442 W/m 29,3 km/h (5 Bft) 93,62 %
12.02.2016 12:30 6,4 C 10,6 C 5,6 C 75 % 0 lf 999,1 hPa 0,0 l/m 2 min 0 min 425 W/m 31,4 km/h (5 Bft) 97,83 %
12.02.2016 12:32 6,4 C 12,2 C 5,6 C 75 % 0 lf 999,1 hPa 0,0 l/m 2 min 0 min 426 W/m 33,5 km/h (5 Bft) 97,87 %
12.02.2016 12:34 6,4 C 12,2 C 5,6 C 76 % 0 lf 999,1 hPa 0,0 l/m 2 min 0 min 440 W/m 23,0 km/h (4 Bft) 94,29 %
12.02.2016 12:36 6,4 C 8,3 C 5,0 C 75 % 0 lf 999,0 hPa 0,0 l/m 2 min 0 min 290 W/m 29,3 km/h (5 Bft) 95,74 %
12.02.2016 12:38 6,4 C 8,9 C 5,0 C 75 % 0 lf 998,9 hPa 0,0 l/m 2 min 0 min 301 W/m 31,4 km/h (5 Bft) 95,74 %
12.02.2016 12:40 6,4 C 8,9 C 5,0 C 75 % 0 lf 998,9 hPa 0,0 l/m 2 min 0 min 446 W/m 29,3 km/h (5 Bft) 89,36 %
12.02.2016 12:42 6,4 C 8,3 C 4,4 C 75 % 0 lf 998,8 hPa 0,0 l/m 0 min 0 min 144 W/m 29,3 km/h (5 Bft) 97,87 %
12.02.2016 12:44 6,3 C 7,8 C 4,4 C 75 % 0 lf 998,7 hPa 0,0 l/m 0 min 0 min 101 W/m 31,4 km/h (5 Bft) 96,30 %
12.02.2016 12:46 6,2 C 7,2 C 4,4 C 75 % 0 lf 998,8 hPa 0,0 l/m 0 min 0 min 107 W/m 27,2 km/h (4 Bft) 98,00 %
12.02.2016 12:48 6,2 C 6,7 C 4,4 C 74 % 0 lf 998,7 hPa 0,0 l/m 0 min 0 min 111 W/m 23,0 km/h (4 Bft) 93,62 %
12.02.2016 12:50 6,1 C 6,7 C 4,4 C 74 % 0 lf 998,7 hPa 0,0 l/m 0 min 0 min 118 W/m 25,1 km/h (4 Bft) 93,62 %
12.02.2016 12:52 6,0 C 6,7 C 4,4 C 75 % 0 lf 998,6 hPa 0,0 l/m 0 min 0 min 120 W/m 31,4 km/h (5 Bft) 95,74 %
12.02.2016 12:54 5,9 C 6,7 C 4,4 C 75 % 0 lf 998,6 hPa 0,0 l/m 0 min 0 min 121 W/m 12,6 km/h (3 Bft) 97,87 %
12.02.2016 12:56 5,8 C 6,7 C 4,4 C 75 % 0 lf 998,6 hPa 0,0 l/m 0 min 0 min 130 W/m 23,0 km/h (4 Bft) 97,22 %
12.02.2016 12:58 5,8 C 6,7 C 4,4 C 75 % 0 lf 998,7 hPa 0,0 l/m 0 min 0 min 138 W/m 25,1 km/h (4 Bft) 90,74 %
12.02.2016 13:00 5,7 C 6,7 C 4,4 C 76 % 0 lf 998,6 hPa 0,0 l/m 0 min 0 min 160 W/m 16,7 km/h (3 Bft) 97,62 %
12.02.2016 13:02 5,7 C 6,1 C 4,4 C 76 % 0 lf 998,6 hPa 0,0 l/m 0 min 0 min 150 W/m 25,1 km/h (4 Bft) 95,74 %
12.02.2016 13:04 5,6 C 6,1 C 4,4 C 76 % 0 lf 998,5 hPa 0,0 l/m 0 min 0 min 134 W/m 16,7 km/h (3 Bft) 96,00 %
12.02.2016 13:06 5,6 C 6,7 C 4,4 C 76 % 0 lf 998,5 hPa 0,0 l/m 0 min 0 min 160 W/m 20,9 km/h (4 Bft) 96,30 %
12.02.2016 13:08 5,6 C 6,7 C 4,4 C 76 % 0 lf 998,5 hPa 0,0 l/m 0 min 0 min 203 W/m 20,9 km/h (4 Bft) 94,74 %
12.02.2016 13:10 5,5 C 6,7 C 4,4 C 76 % 0 lf 998,4 hPa 0,0 l/m 0 min 0 min 164 W/m 23,0 km/h (4 Bft) 95,83 %
12.02.2016 13:12 5,5 C 6,1 C 4,4 C 77 % 0 lf 998,4 hPa 0,0 l/m 0 min 0 min 145 W/m 25,1 km/h (4 Bft) 95,74 %
12.02.2016 13:14 5,4 C 7,2 C 4,4 C 76 % 0 lf 998,4 hPa 0,0 l/m 0 min 0 min 188 W/m 23,0 km/h (4 Bft) 93,62 %
12.02.2016 13:16 5,4 C 8,3 C 5,0 C 76 % 0 lf 998,4 hPa 0,0 l/m 2 min 0 min 249 W/m 27,2 km/h (4 Bft) 93,62 %
12.02.2016 13:18 5,4 C 7,8 C 5,0 C 77 % 0 lf 998,3 hPa 0,0 l/m 2 min 0 min 366 W/m 20,9 km/h (4 Bft) 90,74 %
12.02.2016 13:20 5,4 C 7,2 C 5,0 C 77 % 0 lf 998,4 hPa 0,0 l/m 2 min 0 min 253 W/m 18,8 km/h (3 Bft) 95,74 %
12.02.2016 13:22 5,4 C 6,7 C 4,4 C 76 % 0 lf 998,4 hPa 0,0 l/m 0 min 0 min 139 W/m 16,7 km/h (3 Bft) 95,74 %
12.02.2016 13:24 5,4 C 6,1 C 4,4 C 76 % 0 lf 998,3 hPa 0,0 l/m 0 min 0 min 126 W/m 23,0 km/h (4 Bft) 93,62 %
12.02.2016 13:26 5,4 C 8,3 C 4,4 C 76 % 0 lf 998,4 hPa 0,0 l/m 0 min 0 min 151 W/m 23,0 km/h (4 Bft) 92,11 %
12.02.2016 13:28 5,4 C 8,3 C 5,0 C 77 % 0 lf 998,3 hPa 0,0 l/m 0 min 0 min 151 W/m 18,8 km/h (3 Bft) 93,75 %
12.02.2016 13:30 5,4 C 8,3 C 5,0 C 77 % 0 lf 998,3 hPa 0,0 l/m 0 min 0 min 206 W/m 31,4 km/h (5 Bft) 93,48 %
12.02.2016 13:32 5,5 C 9,4 C 5,0 C 77 % 0 lf 998,3 hPa 0,0 l/m 2 min 0 min 400 W/m 20,9 km/h (4 Bft) 91,49 %
12.02.2016 13:34 5,5 C 9,4 C 5,0 C 77 % 0 lf 998,2 hPa 0,0 l/m 2 min 0 min 468 W/m 23,0 km/h (4 Bft) 97,87 %
12.02.2016 13:36 5,6 C 9,4 C 5,6 C 76 % 0 lf 998,2 hPa 0,0 l/m 2 min 0 min 533 W/m 23,0 km/h (4 Bft) 93,62 %
12.02.2016 13:38 5,7 C 10,0 C 5,6 C 76 % 0 lf 998,1 hPa 0,0 l/m 2 min 0 min 484 W/m 16,7 km/h (3 Bft) 93,62 %
12.02.2016 13:40 5,7 C 11,1 C 5,6 C 76 % 0 lf 998,1 hPa 0,0 l/m 2 min 0 min 482 W/m 23,0 km/h (4 Bft) 90,74 %
12.02.2016 13:42 5,8 C 8,3 C 5,0 C 75 % 0 lf 998,1 hPa 0,0 l/m 2 min 0 min 441 W/m 23,0 km/h (4 Bft) 95,74 %
12.02.2016 13:44 5,8 C 7,2 C 5,0 C 74 % 0 lf 998,1 hPa 0,0 l/m 0 min 0 min 180 W/m 16,7 km/h (3 Bft) 94,74 %
12.02.2016 13:46 5,8 C 6,7 C 5,0 C 74 % 0 lf 998,0 hPa 0,0 l/m 0 min 0 min 186 W/m 18,8 km/h (3 Bft) 95,83 %
12.02.2016 13:48 5,8 C 6,7 C 5,0 C 74 % 0 lf 998,0 hPa 0,0 l/m 0 min 0 min 186 W/m 12,6 km/h (3 Bft) 95,74 %
12.02.2016 13:50 5,8 C 7,2 C 5,0 C 74 % 0 lf 998,0 hPa 0,0 l/m 2 min 0 min 204 W/m 12,6 km/h (3 Bft) 93,62 %
12.02.2016 13:52 5,8 C 7,2 C 5,0 C 75 % 0 lf 997,9 hPa 0,0 l/m 0 min 0 min 185 W/m 16,7 km/h (3 Bft) 91,49 %
12.02.2016 13:54 5,8 C 6,7 C 5,0 C 75 % 0 lf 997,9 hPa 0,0 l/m 0 min 0 min 158 W/m 20,9 km/h (4 Bft) 95,65 %
12.02.2016 13:56 5,8 C 6,1 C 5,0 C 74 % 0 lf 997,9 hPa 0,0 l/m 0 min 0 min 163 W/m 23,0 km/h (4 Bft) 94,55 %
12.02.2016 13:58 5,7 C 6,1 C 5,0 C 74 % 0 lf 997,8 hPa 0,0 l/m 0 min 0 min 163 W/m 20,9 km/h (4 Bft) 97,37 %
12.02.2016 14:00 5,7 C 6,1 C 5,0 C 74 % 0 lf 997,8 hPa 0,0 l/m 0 min 0 min 172 W/m 16,7 km/h (3 Bft) 94,00 %
12.02.2016 14:02 5,7 C 6,7 C 5,0 C 74 % 0 lf 997,8 hPa 0,0 l/m 0 min 0 min 179 W/m 20,9 km/h (4 Bft) 96,00 %
12.02.2016 14:04 5,7 C 6,7 C 5,0 C 74 % 0 lf 997,7 hPa 0,0 l/m 0 min 0 min 175 W/m 25,1 km/h (4 Bft) 95,65 %
12.02.2016 14:06 5,6 C 6,1 C 5,0 C 74 % 0 lf 997,7 hPa 0,0 l/m 0 min 0 min 165 W/m 18,8 km/h (3 Bft) 94,00 %
12.02.2016 14:08 5,6 C 6,7 C 5,0 C 74 % 0 lf 997,7 hPa 0,0 l/m 0 min 0 min 147 W/m 18,8 km/h (3 Bft) 97,22 %
12.02.2016 14:10 5,6 C 6,1 C 5,0 C 74 % 0 lf 997,7 hPa 0,0 l/m 0 min 0 min 126 W/m 23,0 km/h (4 Bft) 95,74 %
12.02.2016 14:12 5,6 C 5,6 C 5,0 C 74 % 0 lf 997,7 hPa 0,0 l/m 0 min 0 min 111 W/m 27,2 km/h (4 Bft) 98,18 %
12.02.2016 14:14 5,5 C 5,6 C 4,4 C 74 % 0 lf 997,7 hPa 0,0 l/m 0 min 0 min 102 W/m 18,8 km/h (3 Bft) 100,00 %
12.02.2016 14:16 5,5 C 6,1 C 4,4 C 74 % 0 lf 997,6 hPa 0,0 l/m 0 min 0 min 106 W/m 23,0 km/h (4 Bft) 95,92 %
12.02.2016 14:18 5,5 C 6,1 C 4,4 C 74 % 0 lf 997,6 hPa 0,0 l/m 0 min 0 min 109 W/m 14,6 km/h (3 Bft) 100,00 %
12.02.2016 14:20 5,4 C 6,1 C 5,0 C 75 % 0 lf 997,6 hPa 0,0 l/m 0 min 0 min 126 W/m 23,0 km/h (4 Bft) 100,00 %
12.02.2016 14:22 5,4 C 6,1 C 5,0 C 75 % 0 lf 997,4 hPa 0,0 l/m 0 min 0 min 148 W/m 23,0 km/h (4 Bft) 95,74 %
12.02.2016 14:24 5,4 C 6,1 C 5,0 C 75 % 0 lf 997,4 hPa 0,0 l/m 0 min 0 min 161 W/m 14,6 km/h (3 Bft) 97,87 %
12.02.2016 14:26 5,4 C 6,1 C 5,0 C 75 % 0 lf 997,4 hPa 0,0 l/m 0 min 0 min 181 W/m 20,9 km/h (4 Bft) 98,18 %
12.02.2016 14:28 5,4 C 6,7 C 5,0 C 75 % 0 lf 997,4 hPa 0,0 l/m 2 min 0 min 204 W/m 18,8 km/h (3 Bft) 95,92 %
12.02.2016 14:30 5,4 C 7,2 C 5,0 C 74 % 0 lf 997,3 hPa 0,0 l/m 2 min 0 min 235 W/m 16,7 km/h (3 Bft) 100,00 %
12.02.2016 14:32 5,4 C 7,2 C 5,0 C 74 % 0 lf 997,2 hPa 0,0 l/m 2 min 0 min 268 W/m 18,8 km/h (3 Bft) 100,00 %
12.02.2016 14:34 5,4 C 7,8 C 5,0 C 74 % 0 lf 997,2 hPa 0,0 l/m 2 min 0 min 306 W/m 20,9 km/h (4 Bft) 100,00 %
12.02.2016 14:36 5,4 C 8,3 C 5,6 C 74 % 0 lf 997,1 hPa 0,0 l/m 2 min 0 min 343 W/m 20,9 km/h (4 Bft) 94,55 %
12.02.2016 14:38 5,5 C 8,9 C 5,6 C 74 % 0 lf 997,1 hPa 0,0 l/m 2 min 0 min 360 W/m 23,0 km/h (4 Bft) 95,65 %
12.02.2016 14:40 5,6 C 11,1 C 5,6 C 74 % 0 lf 997,1 hPa 0,0 l/m 2 min 0 min 471 W/m 14,6 km/h (3 Bft) 100,00 %
12.02.2016 14:42 5,7 C 12,2 C 6,1 C 74 % 0 lf 997,1 hPa 0,0 l/m 2 min 0 min 483 W/m 16,7 km/h (3 Bft) 100,00 %
12.02.2016 14:44 5,8 C 12,8 C 6,1 C 73 % 0 lf 997,1 hPa 0,0 l/m 2 min 0 min 480 W/m 14,6 km/h (3 Bft) 97,22 %
12.02.2016 14:46 5,9 C 14,4 C 6,1 C 74 % 0 lf 997,0 hPa 0,0 l/m 2 min 0 min 451 W/m 14,6 km/h (3 Bft) 97,87 %
12.02.2016 14:48 6,1 C 13,3 C 6,1 C 74 % 0 lf 997,0 hPa 0,0 l/m 2 min 0 min 441 W/m 25,1 km/h (4 Bft) 100,00 %
12.02.2016 14:50 6,2 C 12,2 C 6,1 C 72 % 0 lf 996,9 hPa 0,0 l/m 2 min 0 min 427 W/m 20,9 km/h (4 Bft) 97,87 %
12.02.2016 14:52 6,3 C 12,2 C 6,1 C 71 % 0 lf 996,9 hPa 0,0 l/m 2 min 0 min 415 W/m 16,7 km/h (3 Bft) 97,87 %
12.02.2016 14:54 6,4 C 12,2 C 6,1 C 71 % 0 lf 996,9 hPa 0,0 l/m 2 min 0 min 398 W/m 16,7 km/h (3 Bft) 97,83 %
12.02.2016 14:56 6,5 C 10,6 C 5,6 C 71 % 0 lf 996,7 hPa 0,0 l/m 2 min 0 min 397 W/m 23,0 km/h (4 Bft) 96,36 %
12.02.2016 14:58 6,6 C 10,0 C 5,6 C 71 % 0 lf 996,7 hPa 0,0 l/m 2 min 0 min 366 W/m 23,0 km/h (4 Bft) 97,87 %
12.02.2016 15:00 6,6 C 8,3 C 5,6 C 71 % 0 lf 996,8 hPa 0,0 l/m 0 min 0 min 154 W/m 27,2 km/h (4 Bft) 96,00 %
12.02.2016 15:02 6,6 C 7,2 C 5,6 C 70 % 0 lf 996,8 hPa 0,0 l/m 0 min 0 min 145 W/m 27,2 km/h (4 Bft) 97,87 %
12.02.2016 15:04 6,6 C 7,2 C 5,6 C 70 % 0 lf 996,6 hPa 0,0 l/m 0 min 0 min 140 W/m 20,9 km/h (4 Bft) 96,97 %
12.02.2016 15:06 6,5 C 7,2 C 5,0 C 69 % 0 lf 996,6 hPa 0,0 l/m 2 min 0 min 175 W/m 12,6 km/h (3 Bft) 96,36 %
12.02.2016 15:08 6,4 C 7,2 C 5,0 C 69 % 0 lf 996,6 hPa 0,0 l/m 2 min 0 min 181 W/m 25,1 km/h (4 Bft) 94,00 %
12.02.2016 15:10 6,4 C 6,7 C 5,0 C 69 % 0 lf 996,6 hPa 0,0 l/m 2 min 0 min 164 W/m 25,1 km/h (4 Bft) 97,14 %
12.02.2016 15:12 6,3 C 6,7 C 5,0 C 69 % 0 lf 996,5 hPa 0,0 l/m 2 min 0 min 167 W/m 20,9 km/h (4 Bft) 97,87 %
12.02.2016 15:14 6,2 C 6,7 C 5,0 C 69 % 0 lf 996,6 hPa 0,0 l/m 2 min 0 min 176 W/m 18,8 km/h (3 Bft) 93,62 %
12.02.2016 15:16 6,2 C 6,7 C 5,0 C 69 % 0 lf 996,5 hPa 0,0 l/m 2 min 0 min 178 W/m 18,8 km/h (3 Bft) 94,55 %
12.02.2016 15:18 6,1 C 6,1 C 5,0 C 69 % 0 lf 996,5 hPa 0,0 l/m 2 min 0 min 170 W/m 18,8 km/h (3 Bft) 97,87 %
12.02.2016 15:20 6,0 C 6,7 C 5,0 C 69 % 0 lf 996,5 hPa 0,0 l/m 2 min 0 min 159 W/m 25,1 km/h (4 Bft) 95,74 %
12.02.2016 15:22 5,9 C 8,3 C 5,0 C 70 % 0 lf 996,5 hPa 0,0 l/m 2 min 0 min 178 W/m 20,9 km/h (4 Bft) 92,00 %
12.02.2016 15:24 5,9 C 8,9 C 5,0 C 71 % 0 lf 996,5 hPa 0,0 l/m 2 min 0 min 263 W/m 33,5 km/h (5 Bft) 95,74 %
12.02.2016 15:26 5,9 C 10,0 C 5,0 C 70 % 0 lf 996,5 hPa 0,0 l/m 2 min 0 min 172 W/m 29,3 km/h (5 Bft) 93,48 %
12.02.2016 15:28 5,9 C 11,1 C 5,0 C 70 % 0 lf 996,5 hPa 0,0 l/m 2 min 0 min 311 W/m 23,0 km/h (4 Bft) 94,29 %
12.02.2016 15:30 5,9 C 10,6 C 5,0 C 70 % 0 lf 996,5 hPa 0,0 l/m 2 min 0 min 285 W/m 31,4 km/h (5 Bft) 91,49 %
12.02.2016 15:32 5,9 C 10,0 C 5,0 C 70 % 0 lf 996,5 hPa 0,0 l/m 2 min 0 min 277 W/m 25,1 km/h (4 Bft) 94,64 %
12.02.2016 15:34 5,9 C 11,1 C 5,0 C 70 % 0 lf 996,5 hPa 0,0 l/m 2 min 0 min 283 W/m 16,7 km/h (3 Bft) 95,74 %
12.02.2016 15:36 6,0 C 10,0 C 5,0 C 70 % 0 lf 996,4 hPa 0,0 l/m 2 min 0 min 274 W/m 18,8 km/h (3 Bft) 93,62 %
12.02.2016 15:38 6,0 C 9,4 C 5,0 C 70 % 0 lf 996,5 hPa 0,0 l/m 2 min 0 min 216 W/m 14,6 km/h (3 Bft) 91,84 %
12.02.2016 15:40 6,1 C 9,4 C 5,0 C 70 % 0 lf 996,5 hPa 0,0 l/m 2 min 0 min 237 W/m 27,2 km/h (4 Bft) 94,29 %
12.02.2016 15:42 6,0 C 8,3 C 4,4 C 69 % 0 lf 996,4 hPa 0,0 l/m 2 min 0 min 229 W/m 25,1 km/h (4 Bft) 95,74 %
12.02.2016 15:44 6,0 C 8,3 C 4,4 C 69 % 0 lf 996,5 hPa 0,0 l/m 2 min 0 min 220 W/m 27,2 km/h (4 Bft) 95,74 %
12.02.2016 15:46 6,0 C 7,8 C 4,4 C 69 % 0 lf 996,5 hPa 0,0 l/m 2 min 0 min 220 W/m 33,5 km/h (5 Bft) 93,62 %
12.02.2016 15:48 5,9 C 7,2 C 4,4 C 68 % 0 lf 996,4 hPa 0,0 l/m 2 min 0 min 155 W/m 25,1 km/h (4 Bft) 93,62 %
12.02.2016 15:50 5,9 C 6,7 C 4,4 C 68 % 0 lf 996,4 hPa 0,0 l/m 2 min 0 min 212 W/m 27,2 km/h (4 Bft) 98,15 %
12.02.2016 15:52 5,9 C 6,7 C 4,4 C 68 % 0 lf 996,3 hPa 0,0 l/m 2 min 0 min 150 W/m 29,3 km/h (5 Bft) 98,00 %
12.02.2016 15:54 5,8 C 6,7 C 4,4 C 69 % 0 lf 996,3 hPa 0,0 l/m 2 min 0 min 139 W/m 16,7 km/h (3 Bft) 93,62 %
12.02.2016 15:56 5,8 C 7,8 C 4,4 C 69 % 0 lf 996,3 hPa 0,0 l/m 2 min 0 min 211 W/m 14,6 km/h (3 Bft) 97,87 %
12.02.2016 15:58 5,8 C 8,3 C 4,4 C 70 % 0 lf 996,3 hPa 0,0 l/m 2 min 0 min 181 W/m 12,6 km/h (3 Bft) 95,74 %
12.02.2016 16:00 5,8 C 7,8 C 4,4 C 70 % 0 lf 996,4 hPa 0,0 l/m 2 min 0 min 208 W/m 23,0 km/h (4 Bft) 93,75 %
12.02.2016 16:02 5,8 C 7,8 C 4,4 C 70 % 0 lf 996,3 hPa 0,0 l/m 0 min 0 min 109 W/m 16,7 km/h (3 Bft) 91,89 %
12.02.2016 16:04 5,8 C 7,8 C 4,4 C 70 % 0 lf 996,3 hPa 0,0 l/m 2 min 0 min 136 W/m 14,6 km/h (3 Bft) 93,75 %
12.02.2016 16:06 5,8 C 6,7 C 4,4 C 70 % 0 lf 996,3 hPa 0,0 l/m 0 min 0 min 99 W/m 20,9 km/h (4 Bft) 93,75 %
12.02.2016 16:08 5,8 C 6,7 C 4,4 C 70 % 0 lf 996,3 hPa 0,0 l/m 0 min 0 min 93 W/m 25,1 km/h (4 Bft) 93,62 %
12.02.2016 16:10 5,8 C 6,7 C 4,4 C 70 % 0 lf 996,3 hPa 0,0 l/m 2 min 0 min 144 W/m 20,9 km/h (4 Bft) 95,74 %
12.02.2016 16:12 5,7 C 6,7 C 4,4 C 70 % 0 lf 996,3 hPa 0,0 l/m 2 min 0 min 160 W/m 18,8 km/h (3 Bft) 95,74 %
12.02.2016 16:14 5,7 C 6,1 C 4,4 C 70 % 0 lf 996,3 hPa 0,0 l/m 2 min 0 min 123 W/m 25,1 km/h (4 Bft) 96,30 %
12.02.2016 16:16 5,7 C 6,1 C 4,4 C 70 % 0 lf 996,3 hPa 0,0 l/m 2 min 0 min 101 W/m 20,9 km/h (4 Bft) 93,62 %
12.02.2016 16:18 5,7 C 6,1 C 4,4 C 70 % 0 lf 996,2 hPa 0,0 l/m 2 min 0 min 98 W/m 16,7 km/h (3 Bft) 100,00 %
12.02.2016 16:20 5,7 C 6,1 C 4,4 C 70 % 0 lf 996,2 hPa 0,0 l/m 0 min 0 min 87 W/m 20,9 km/h (4 Bft) 93,75 %
12.02.2016 16:22 5,6 C 6,1 C 4,4 C 70 % 0 lf 996,3 hPa 0,0 l/m 0 min 0 min 75 W/m 16,7 km/h (3 Bft) 95,74 %
12.02.2016 16:24 5,6 C 6,1 C 4,4 C 70 % 0 lf 996,2 hPa 0,0 l/m 0 min 0 min 61 W/m 20,9 km/h (4 Bft) 97,87 %
12.02.2016 16:26 5,6 C 6,1 C 4,4 C 70 % 0 lf 996,2 hPa 0,0 l/m 0 min 0 min 56 W/m 25,1 km/h (4 Bft) 95,65 %
12.02.2016 16:28 5,6 C 6,1 C 4,4 C 70 % 0 lf 996,3 hPa 0,0 l/m 0 min 0 min 56 W/m 20,9 km/h (4 Bft) 94,55 %
12.02.2016 16:30 5,6 C 5,6 C 4,4 C 70 % 0 lf 996,2 hPa 0,0 l/m 0 min 0 min 57 W/m 27,2 km/h (4 Bft) 97,37 %
12.02.2016 16:32 5,6 C 5,6 C 4,4 C 70 % 0 lf 996,3 hPa 0,0 l/m 0 min 0 min 60 W/m 18,8 km/h (3 Bft) 97,92 %
12.02.2016 16:34 5,5 C 5,6 C 4,4 C 70 % 0 lf 996,3 hPa 0,0 l/m 0 min 0 min 61 W/m 14,6 km/h (3 Bft) 93,62 %
12.02.2016 16:36 5,5 C 5,6 C 4,4 C 70 % 0 lf 996,3 hPa 0,0 l/m 0 min 0 min 57 W/m 18,8 km/h (3 Bft) 97,87 %
12.02.2016 16:38 5,4 C 5,6 C 4,4 C 70 % 0 lf 996,2 hPa 0,0 l/m 0 min 0 min 55 W/m 20,9 km/h (4 Bft) 95,65 %
12.02.2016 16:40 5,4 C 5,6 C 4,4 C 70 % 0 lf 996,2 hPa 0,0 l/m 0 min 0 min 51 W/m 16,7 km/h (3 Bft) 95,74 %
12.02.2016 16:42 5,4 C 5,6 C 4,4 C 71 % 0 lf 996,2 hPa 0,0 l/m 0 min 0 min 47 W/m 16,7 km/h (3 Bft) 98,18 %
12.02.2016 16:44 5,4 C 5,6 C 4,4 C 71 % 0 lf 996,1 hPa 0,0 l/m 0 min 0 min 48 W/m 14,6 km/h (3 Bft) 100,00 %
12.02.2016 16:46 5,4 C 5,6 C 4,4 C 71 % 0 lf 996,2 hPa 0,0 l/m 0 min 0 min 49 W/m 20,9 km/h (4 Bft) 95,74 %
12.02.2016 16:48 5,4 C 5,6 C 4,4 C 71 % 0 lf 996,2 hPa 0,0 l/m 0 min 0 min 48 W/m 23,0 km/h (4 Bft) 97,87 %
12.02.2016 16:50 5,3 C 5,6 C 3,9 C 70 % 0 lf 996,2 hPa 0,0 l/m 0 min 0 min 41 W/m 25,1 km/h (4 Bft) 95,65 %
12.02.2016 16:52 5,3 C 5,6 C 3,9 C 70 % 0 lf 996,2 hPa 0,0 l/m 0 min 0 min 37 W/m 18,8 km/h (3 Bft) 97,92 %
12.02.2016 16:54 5,3 C 5,6 C 3,9 C 71 % 0 lf 996,1 hPa 0,0 l/m 0 min 0 min 31 W/m 20,9 km/h (4 Bft) 100,00 %
12.02.2016 16:56 5,3 C 5,6 C 3,9 C 71 % 0 lf 996,1 hPa 0,0 l/m 0 min 0 min 24 W/m 16,7 km/h (3 Bft) 97,87 %
12.02.2016 16:58 5,3 C 5,6 C 3,9 C 71 % 0 lf 996,1 hPa 0,0 l/m 0 min 0 min 25 W/m 14,6 km/h (3 Bft) 90,74 %
12.02.2016 17:00 5,3 C 5,6 C 3,9 C 71 % 0 lf 996,2 hPa 0,0 l/m 0 min 0 min 25 W/m 23,0 km/h (4 Bft) 97,37 %
12.02.2016 17:02 5,3 C 5,6 C 3,9 C 71 % 0 lf 996,1 hPa 0,0 l/m 0 min 0 min 23 W/m 18,8 km/h (3 Bft) 94,00 %
12.02.2016 17:04 5,2 C 5,6 C 3,9 C 71 % 0 lf 996,1 hPa 0,0 l/m 0 min 0 min 21 W/m 27,2 km/h (4 Bft) 96,00 %
12.02.2016 17:06 5,2 C 5,6 C 3,9 C 70 % 0 lf 996,1 hPa 0,0 l/m 0 min 0 min 19 W/m 27,2 km/h (4 Bft) 98,00 %
12.02.2016 17:08 5,2 C 5,6 C 3,9 C 71 % 0 lf 996,1 hPa 0,0 l/m 0 min 0 min 14 W/m 27,2 km/h (4 Bft) 95,74 %
12.02.2016 17:10 5,2 C 5,6 C 3,9 C 70 % 0 lf 996,1 hPa 0,0 l/m 0 min 0 min 12 W/m 29,3 km/h (5 Bft) 94,44 %
12.02.2016 17:12 5,2 C 5,6 C 3,9 C 71 % 0 lf 996,1 hPa 0,0 l/m 0 min 0 min 11 W/m 20,9 km/h (4 Bft) 97,87 %
12.02.2016 17:14 5,1 C 5,0 C 3,9 C 71 % 0 lf 996,0 hPa 0,0 l/m 0 min 0 min 11 W/m 23,0 km/h (4 Bft) 93,48 %
12.02.2016 17:16 5,1 C 5,0 C 3,9 C 71 % 0 lf 996,1 hPa 0,0 l/m 0 min 0 min 11 W/m 23,0 km/h (4 Bft) 95,74 %
12.02.2016 17:18 5,1 C 5,0 C 3,9 C 71 % 0 lf 996,0 hPa 0,0 l/m 0 min 0 min 11 W/m 14,6 km/h (3 Bft) 96,36 %
12.02.2016 17:20 5,1 C 5,0 C 3,9 C 71 % 0 lf 996,0 hPa 0,0 l/m 0 min 0 min 11 W/m 16,7 km/h (3 Bft) 95,74 %
12.02.2016 17:22 5,1 C 5,0 C 3,9 C 72 % 0 lf 996,0 hPa 0,0 l/m 0 min 0 min 11 W/m 16,7 km/h (3 Bft) 97,83 %
12.02.2016 17:24 5,1 C 5,0 C 3,9 C 72 % 0 lf 996,0 hPa 0,0 l/m 0 min 0 min 11 W/m 20,9 km/h (4 Bft) 97,87 %
12.02.2016 17:26 5,1 C 5,0 C 3,9 C 72 % 0 lf 996,0 hPa 0,0 l/m 0 min 0 min 10 W/m 14,6 km/h (3 Bft) 97,87 %
12.02.2016 17:28 5,1 C 5,0 C 3,9 C 72 % 0 lf 996,0 hPa 0,0 l/m 0 min 0 min 9 W/m 18,8 km/h (3 Bft) 92,00 %
12.02.2016 17:30 5,0 C 5,0 C 3,9 C 72 % 0 lf 996,0 hPa 0,0 l/m 0 min 0 min 10 W/m 20,9 km/h (4 Bft) 95,74 %
12.02.2016 17:32 5,0 C 5,0 C 3,9 C 72 % 0 lf 995,9 hPa 0,0 l/m 0 min 0 min 10 W/m 25,1 km/h (4 Bft) 97,22 %
12.02.2016 17:34 4,9 C 5,0 C 3,9 C 71 % 0 lf 995,9 hPa 0,0 l/m 0 min 0 min 9 W/m 25,1 km/h (4 Bft) 95,74 %
12.02.2016 17:36 4,9 C 5,0 C 3,9 C 71 % 0 lf 995,9 hPa 0,0 l/m 0 min 0 min 9 W/m 27,2 km/h (4 Bft) 91,30 %
12.02.2016 17:38 4,9 C 5,0 C 3,9 C 71 % 0 lf 995,9 hPa 0,0 l/m 0 min 0 min 7 W/m 23,0 km/h (4 Bft) 97,14 %
12.02.2016 17:40 4,9 C 5,0 C 3,9 C 71 % 0 lf 995,9 hPa 0,0 l/m 0 min 0 min 7 W/m 23,0 km/h (4 Bft) 93,62 %
12.02.2016 17:42 4,9 C 5,0 C 3,9 C 71 % 0 lf 995,9 hPa 0,0 l/m 0 min 0 min 7 W/m 14,6 km/h (3 Bft) 97,87 %
12.02.2016 17:44 4,9 C 5,0 C 3,3 C 71 % 0 lf 995,9 hPa 0,0 l/m 0 min 0 min 6 W/m 14,6 km/h (3 Bft) 93,62 %
12.02.2016 17:46 4,9 C 5,0 C 3,3 C 72 % 0 lf 995,9 hPa 0,0 l/m 0 min 0 min 5 W/m 16,7 km/h (3 Bft) 95,74 %
12.02.2016 17:48 4,9 C 5,0 C 3,9 C 72 % 0 lf 995,9 hPa 0,0 l/m 0 min 0 min 5 W/m 12,6 km/h (3 Bft) 97,83 %
12.02.2016 17:50 4,9 C 5,0 C 3,9 C 72 % 0 lf 995,9 hPa 0,0 l/m 0 min 0 min 5 W/m 14,6 km/h (3 Bft) 95,74 %
12.02.2016 17:52 4,9 C 5,0 C 3,9 C 72 % 0 lf 996,0 hPa 0,0 l/m 0 min 0 min 5 W/m 20,9 km/h (4 Bft) 95,74 %
12.02.2016 17:54 4,9 C 5,0 C 3,9 C 72 % 0 lf 996,0 hPa 0,0 l/m 0 min 0 min 5 W/m 20,9 km/h (4 Bft) 95,74 %
12.02.2016 17:56 4,9 C 5,0 C 3,9 C 72 % 0 lf 996,0 hPa 0,0 l/m 0 min 0 min 4 W/m 20,9 km/h (4 Bft) 97,87 %
12.02.2016 17:58 4,9 C 5,0 C 3,9 C 72 % 0 lf 996,0 hPa 0,0 l/m 0 min 0 min 0 W/m 29,3 km/h (5 Bft) 97,87 %
12.02.2016 18:00 4,8 C 5,0 C 3,3 C 72 % 0 lf 996,0 hPa 0,0 l/m 0 min 0 min 0 W/m 14,6 km/h (3 Bft) 91,84 %
12.02.2016 18:02 4,8 C 5,0 C 3,3 C 72 % 0 lf 996,0 hPa 0,0 l/m 0 min 0 min 0 W/m 29,3 km/h (5 Bft) 91,49 %
12.02.2016 18:04 4,8 C 5,0 C 3,3 C 72 % 0 lf 996,0 hPa 0,0 l/m 0 min 0 min 0 W/m 29,3 km/h (5 Bft) 91,67 %
12.02.2016 18:06 4,8 C 5,0 C 3,3 C 72 % 0 lf 996,0 hPa 0,0 l/m 0 min 0 min 0 W/m 20,9 km/h (4 Bft) 95,74 %
12.02.2016 18:08 4,8 C 5,0 C 3,3 C 72 % 0 lf 996,0 hPa 0,0 l/m 0 min 0 min 0 W/m 18,8 km/h (3 Bft) 97,96 %
12.02.2016 18:10 4,8 C 5,0 C 3,3 C 72 % 0 lf 996,0 hPa 0,0 l/m 0 min 0 min 0 W/m 27,2 km/h (4 Bft) 95,65 %
12.02.2016 18:12 4,8 C 5,0 C 3,3 C 71 % 0 lf 996,0 hPa 0,0 l/m 0 min 0 min 0 W/m 16,7 km/h (3 Bft) 95,74 %
12.02.2016 18:14 4,8 C 5,0 C 3,3 C 71 % 0 lf 996,0 hPa 0,0 l/m 0 min 0 min 0 W/m 25,1 km/h (4 Bft) 95,74 %
12.02.2016 18:16 4,8 C 5,0 C 3,3 C 71 % 0 lf 996,0 hPa 0,0 l/m 0 min 0 min 0 W/m 20,9 km/h (4 Bft) 97,87 %
12.02.2016 18:18 4,7 C 4,4 C 3,3 C 71 % 0 lf 996,0 hPa 0,0 l/m 0 min 0 min 0 W/m 23,0 km/h (4 Bft) 95,74 %
12.02.2016 18:20 4,7 C 4,4 C 3,3 C 71 % 0 lf 996,1 hPa 0,0 l/m 0 min 0 min 0 W/m 29,3 km/h (5 Bft) 97,62 %
12.02.2016 18:22 4,7 C 4,4 C 2,8 C 72 % 0 lf 996,1 hPa 0,0 l/m 0 min 0 min 0 W/m 16,7 km/h (3 Bft) 98,04 %
12.02.2016 18:24 4,7 C 4,4 C 2,8 C 72 % 0 lf 996,0 hPa 0,0 l/m 0 min 0 min 0 W/m 20,9 km/h (4 Bft) 95,74 %
12.02.2016 18:26 4,6 C 4,4 C 2,8 C 72 % 0 lf 996,1 hPa 0,0 l/m 0 min 0 min 0 W/m 20,9 km/h (4 Bft) 97,87 %
12.02.2016 18:28 4,6 C 4,4 C 2,8 C 72 % 0 lf 996,1 hPa 0,0 l/m 0 min 0 min 0 W/m 25,1 km/h (4 Bft) 95,74 %
12.02.2016 18:30 4,6 C 4,4 C 2,8 C 72 % 0 lf 996,0 hPa 0,0 l/m 0 min 0 min 0 W/m 14,6 km/h (3 Bft) 97,87 %
12.02.2016 18:32 4,5 C 4,4 C 2,8 C 72 % 0 lf 996,1 hPa 0,0 l/m 0 min 0 min 0 W/m 18,8 km/h (3 Bft) 95,74 %
12.02.2016 18:34 4,4 C 3,9 C 2,8 C 73 % 0 lf 996,0 hPa 0,0 l/m 0 min 0 min 0 W/m 20,9 km/h (4 Bft) 95,24 %
12.02.2016 18:36 4,4 C 3,9 C 2,2 C 73 % 0 lf 996,1 hPa 0,0 l/m 0 min 0 min 0 W/m 14,6 km/h (3 Bft) 95,74 %
12.02.2016 18:38 4,4 C 4,4 C 2,8 C 73 % 0 lf 996,1 hPa 0,0 l/m 0 min 0 min 0 W/m 16,7 km/h (3 Bft) 94,00 %
12.02.2016 18:40 4,3 C 3,9 C 2,8 C 73 % 0 lf 996,1 hPa 0,0 l/m 0 min 0 min 0 W/m 18,8 km/h (3 Bft) 95,74 %
12.02.2016 18:42 4,3 C 3,9 C 2,2 C 73 % 0 lf 996,1 hPa 0,0 l/m 0 min 0 min 0 W/m 16,7 km/h (3 Bft) 95,74 %
12.02.2016 18:44 4,3 C 3,9 C 2,2 C 73 % 0 lf 996,1 hPa 0,0 l/m 0 min 0 min 0 W/m 16,7 km/h (3 Bft) 95,83 %
12.02.2016 18:46 4,2 C 3,9 C 2,8 C 73 % 0 lf 996,1 hPa 0,0 l/m 0 min 0 min 0 W/m 16,7 km/h (3 Bft) 93,48 %
12.02.2016 18:48 4,2 C 3,9 C 2,2 C 73 % 0 lf 996,0 hPa 0,0 l/m 0 min 0 min 0 W/m 18,8 km/h (3 Bft) 95,74 %
12.02.2016 18:50 4,2 C 3,9 C 2,2 C 74 % 0 lf 996,1 hPa 0,0 l/m 0 min 0 min 0 W/m 14,6 km/h (3 Bft) 89,36 %
12.02.2016 18:52 4,2 C 3,9 C 2,2 C 73 % 0 lf 996,1 hPa 0,0 l/m 0 min 0 min 0 W/m 12,6 km/h (3 Bft) 91,49 %
12.02.2016 18:54 4,1 C 3,9 C 2,2 C 74 % 0 lf 996,1 hPa 0,0 l/m 0 min 0 min 0 W/m 12,6 km/h (3 Bft) 91,49 %
12.02.2016 18:56 4,1 C 3,9 C 2,2 C 74 % 0 lf 996,1 hPa 0,0 l/m 0 min 0 min 0 W/m 10,5 km/h (2 Bft) 95,74 %
12.02.2016 18:58 4,1 C 3,9 C 2,2 C 74 % 0 lf 996,0 hPa 0,0 l/m 0 min 0 min 0 W/m 8,4 km/h (2 Bft) 95,65 %
12.02.2016 19:00 4,0 C 3,9 C 2,2 C 74 % 0 lf 996,0 hPa 0,0 l/m 0 min 0 min 0 W/m 10,5 km/h (2 Bft) 93,88 %
12.02.2016 19:02 4,0 C 3,9 C 2,2 C 74 % 0 lf 996,0 hPa 0,0 l/m 0 min 0 min 0 W/m 14,6 km/h (3 Bft) 97,87 %
12.02.2016 19:04 3,9 C 3,9 C 1,7 C 74 % 0 lf 996,0 hPa 0,0 l/m 0 min 0 min 0 W/m 12,6 km/h (3 Bft) 91,49 %
12.02.2016 19:06 3,9 C 3,3 C 1,7 C 74 % 0 lf 996,0 hPa 0,0 l/m 0 min 0 min 0 W/m 12,6 km/h (3 Bft) 95,83 %
12.02.2016 19:08 3,9 C 3,9 C 2,2 C 74 % 0 lf 996,0 hPa 0,0 l/m 0 min 0 min 0 W/m 10,5 km/h (2 Bft) 95,65 %
12.02.2016 19:10 3,9 C 3,3 C 1,7 C 75 % 0 lf 996,0 hPa 0,0 l/m 0 min 0 min 0 W/m 14,6 km/h (3 Bft) 95,74 %
12.02.2016 19:12 3,8 C 3,3 C 1,7 C 75 % 0 lf 996,0 hPa 0,0 l/m 0 min 0 min 0 W/m 14,6 km/h (3 Bft) 94,29 %
12.02.2016 19:14 3,8 C 3,3 C 1,7 C 75 % 0 lf 996,0 hPa 0,0 l/m 0 min 0 min 0 W/m 10,5 km/h (2 Bft) 96,36 %
12.02.2016 19:16 3,8 C 3,3 C 1,7 C 75 % 0 lf 996,0 hPa 0,0 l/m 0 min 0 min 0 W/m 6,3 km/h (2 Bft) 95,74 %
12.02.2016 19:18 3,7 C 3,3 C 1,7 C 75 % 0 lf 996,1 hPa 0,0 l/m 0 min 0 min 0 W/m 6,3 km/h (2 Bft) 93,62 %
12.02.2016 19:20 3,7 C 3,3 C 1,7 C 75 % 0 lf 996,0 hPa 0,0 l/m 0 min 0 min 0 W/m 10,5 km/h (2 Bft) 97,83 %
12.02.2016 19:22 3,7 C 3,3 C 1,7 C 75 % 0 lf 996,0 hPa 0,0 l/m 0 min 0 min 0 W/m 10,5 km/h (2 Bft) 97,87 %
12.02.2016 19:24 3,7 C 3,3 C 1,7 C 75 % 0 lf 996,0 hPa 0,0 l/m 0 min 0 min 0 W/m 10,5 km/h (2 Bft) 97,87 %
12.02.2016 19:26 3,6 C 2,8 C 1,1 C 76 % 0 lf 996,0 hPa 0,0 l/m 0 min 0 min 0 W/m 6,3 km/h (2 Bft) 91,49 %
12.02.2016 19:28 3,6 C 2,8 C 1,1 C 76 % 0 lf 996,0 hPa 0,0 l/m 0 min 0 min 0 W/m 6,3 km/h (2 Bft) 91,49 %
12.02.2016 19:30 3,6 C 2,8 C 1,1 C 76 % 0 lf 996,0 hPa 0,0 l/m 0 min 0 min 0 W/m 6,3 km/h (2 Bft) 93,62 %
12.02.2016 19:32 3,6 C 2,8 C 1,1 C 76 % 0 lf 996,0 hPa 0,0 l/m 0 min 0 min 0 W/m 6,3 km/h (2 Bft) 95,65 %
12.02.2016 19:34 3,5 C 2,8 C 1,1 C 76 % 0 lf 996,0 hPa 0,0 l/m 0 min 0 min 0 W/m 6,3 km/h (2 Bft) 96,00 %
12.02.2016 19:36 3,5 C 2,2 C 0,6 C 76 % 0 lf 996,0 hPa 0,0 l/m 0 min 0 min 0 W/m 6,3 km/h (2 Bft) 93,62 %
12.02.2016 19:38 3,4 C 2,2 C 0,6 C 76 % 0 lf 996,0 hPa 0,0 l/m 0 min 0 min 0 W/m 10,5 km/h (2 Bft) 91,49 %
12.02.2016 19:40 3,4 C 2,2 C 0,6 C 76 % 0 lf 996,0 hPa 0,0 l/m 0 min 0 min 0 W/m 6,3 km/h (2 Bft) 91,67 %
12.02.2016 19:42 3,3 C 2,2 C 0,6 C 76 % 0 lf 996,0 hPa 0,0 l/m 0 min 0 min 0 W/m 4,2 km/h (1 Bft) 95,74 %
12.02.2016 19:44 3,3 C 1,7 C 0,0 C 76 % 0 lf 996,0 hPa 0,0 l/m 0 min 0 min 0 W/m 2,1 km/h (1 Bft) 89,13 %
12.02.2016 19:46 3,3 C 1,7 C 0,0 C 76 % 0 lf 995,9 hPa 0,0 l/m 0 min 0 min 0 W/m 6,3 km/h (2 Bft) 93,62 %
12.02.2016 19:48 3,2 C 1,1 C 0,0 C 77 % 0 lf 996,0 hPa 0,0 l/m 0 min 0 min 0 W/m 6,3 km/h (2 Bft) 93,62 %
12.02.2016 19:50 3,2 C 1,1 C 0,0 C 77 % 0 lf 995,9 hPa 0,0 l/m 0 min 0 min 0 W/m 4,2 km/h (1 Bft) 95,74 %
12.02.2016 19:52 3,1 C 1,7 C 0,0 C 77 % 0 lf 995,9 hPa 0,0 l/m 0 min 0 min 0 W/m 6,3 km/h (2 Bft) 95,74 %
12.02.2016 19:54 3,1 C 1,1 C -0,6 C 77 % 0 lf 995,9 hPa 0,0 l/m 0 min 0 min 0 W/m 4,2 km/h (1 Bft) 100,00 %
12.02.2016 19:56 3,0 C 1,1 C -0,6 C 77 % 0 lf 995,9 hPa 0,0 l/m 0 min 0 min 0 W/m 6,3 km/h (2 Bft) 94,83 %
12.02.2016 19:58 2,9 C 1,1 C -0,6 C 77 % 0 lf 995,9 hPa 0,0 l/m 0 min 0 min 0 W/m 4,2 km/h (1 Bft) 91,43 %
12.02.2016 20:00 2,9 C 1,1 C -0,6 C 77 % 0 lf 996,0 hPa 0,0 l/m 0 min 0 min 0 W/m 4,2 km/h (1 Bft) 96,00 %
12.02.2016 20:02 2,8 C 0,6 C -0,6 C 77 % 0 lf 996,0 hPa 0,0 l/m 0 min 0 min 0 W/m 2,1 km/h (1 Bft) 93,22 %
12.02.2016 20:04 2,8 C 0,6 C -0,6 C 77 % 0 lf 996,0 hPa 0,0 l/m 0 min 0 min 0 W/m 2,1 km/h (1 Bft) 95,65 %
12.02.2016 20:06 2,7 C 0,6 C -0,6 C 77 % 0 lf 996,0 hPa 0,0 l/m 0 min 0 min 0 W/m 2,1 km/h (1 Bft) 95,74 %
12.02.2016 20:08 2,7 C 0,6 C -0,6 C 77 % 0 lf 995,9 hPa 0,0 l/m 0 min 0 min 0 W/m 4,2 km/h (1 Bft) 97,37 %
12.02.2016 20:10 2,6 C 0,6 C -0,6 C 78 % 0 lf 995,9 hPa 0,0 l/m 0 min 0 min 0 W/m 2,1 km/h (1 Bft) 97,87 %
12.02.2016 20:12 2,6 C 0,6 C -0,6 C 78 % 0 lf 995,9 hPa 0,0 l/m 0 min 0 min 0 W/m 2,1 km/h (1 Bft) 97,87 %
12.02.2016 20:14 2,5 C 0,0 C -0,6 C 78 % 0 lf 996,0 hPa 0,0 l/m 0 min 0 min 0 W/m 2,1 km/h (1 Bft) 97,87 %
12.02.2016 20:16 2,4 C 0,0 C -1,1 C 78 % 0 lf 995,9 hPa 0,0 l/m 0 min 0 min 0 W/m 4,2 km/h (1 Bft) 100,00 %
12.02.2016 20:18 2,4 C 0,0 C -1,1 C 78 % 0 lf 996,0 hPa 0,0 l/m 0 min 0 min 0 W/m 4,2 km/h (1 Bft) 97,44 %
12.02.2016 20:20 2,3 C 0,0 C -1,1 C 78 % 0 lf 996,0 hPa 0,0 l/m 0 min 0 min 0 W/m 4,2 km/h (1 Bft) 93,48 %
12.02.2016 20:22 2,3 C 0,0 C -1,1 C 78 % 0 lf 996,0 hPa 0,0 l/m 0 min 0 min 0 W/m 6,3 km/h (2 Bft) 100,00 %
12.02.2016 20:24 2,2 C 0,6 C -1,1 C 78 % 0 lf 996,0 hPa 0,0 l/m 0 min 0 min 0 W/m 6,3 km/h (2 Bft) 100,00 %
12.02.2016 20:26 2,2 C 0,6 C -1,1 C 78 % 0 lf 996,0 hPa 0,0 l/m 0 min 0 min 0 W/m 4,2 km/h (1 Bft) 97,87 %
12.02.2016 20:28 2,1 C 0,0 C -1,1 C 79 % 0 lf 995,9 hPa 0,0 l/m 0 min 0 min 0 W/m 4,2 km/h (1 Bft) 100,00 %
12.02.2016 20:30 2,0 C 0,0 C -1,1 C 79 % 0 lf 996,0 hPa 0,0 l/m 0 min 0 min 0 W/m 4,2 km/h (1 Bft) 100,00 %
12.02.2016 20:32 2,0 C 0,0 C -1,1 C 79 % 0 lf 996,0 hPa 0,0 l/m 0 min 0 min 0 W/m 2,1 km/h (1 Bft) 100,00 %
12.02.2016 20:34 1,9 C 0,0 C -1,1 C 79 % 0 lf 996,0 hPa 0,0 l/m 0 min 0 min 0 W/m 6,3 km/h (2 Bft) 97,87 %
12.02.2016 20:36 1,9 C 0,0 C -1,1 C 79 % 0 lf 996,0 hPa 0,0 l/m 0 min 0 min 0 W/m 4,2 km/h (1 Bft) 100,00 %
12.02.2016 20:38 1,8 C 0,0 C -1,1 C 79 % 0 lf 996,0 hPa 0,0 l/m 0 min 0 min 0 W/m 4,2 km/h (1 Bft) 100,00 %
12.02.2016 20:40 1,8 C 0,0 C -1,1 C 79 % 0 lf 996,0 hPa 0,0 l/m 0 min 0 min 0 W/m 6,3 km/h (2 Bft) 100,00 %
12.02.2016 20:42 1,7 C 0,0 C -1,7 C 79 % 0 lf 995,9 hPa 0,0 l/m 0 min 0 min 0 W/m 6,3 km/h (2 Bft) 100,00 %
12.02.2016 20:44 1,7 C 0,0 C -1,7 C 79 % 0 lf 996,0 hPa 0,0 l/m 0 min 0 min 0 W/m 6,3 km/h (2 Bft) 100,00 %
12.02.2016 20:46 1,6 C 0,0 C -1,7 C 80 % 0 lf 995,9 hPa 0,0 l/m 0 min 0 min 0 W/m 6,3 km/h (2 Bft) 100,00 %
12.02.2016 20:48 1,6 C 0,0 C -1,7 C 80 % 0 lf 995,9 hPa 0,0 l/m 0 min 0 min 0 W/m 6,3 km/h (2 Bft) 97,87 %
12.02.2016 20:50 1,5 C 0,0 C -1,7 C 80 % 0 lf 995,9 hPa 0,0 l/m 0 min 0 min 0 W/m 10,5 km/h (2 Bft) 97,87 %
12.02.2016 20:52 1,4 C 0,0 C -1,7 C 80 % 0 lf 996,0 hPa 0,0 l/m 0 min 0 min 0 W/m 10,5 km/h (2 Bft) 100,00 %
12.02.2016 20:54 1,4 C 0,0 C -1,7 C 80 % 0 lf 995,9 hPa 0,0 l/m 0 min 0 min 0 W/m 6,3 km/h (2 Bft) 95,65 %
12.02.2016 20:56 1,3 C 0,0 C -1,7 C 80 % 0 lf 996,0 hPa 0,0 l/m 0 min 0 min 0 W/m 6,3 km/h (2 Bft) 100,00 %
12.02.2016 20:58 1,3 C 0,0 C -1,7 C 80 % 0 lf 996,0 hPa 0,0 l/m 0 min 0 min 0 W/m 6,3 km/h (2 Bft) 95,45 %
12.02.2016 21:00 1,3 C 0,0 C -1,7 C 81 % 0 lf 996,0 hPa 0,0 l/m 0 min 0 min 0 W/m 6,3 km/h (2 Bft) 95,74 %
12.02.2016 21:02 1,2 C 0,0 C -1,7 C 81 % 0 lf 996,0 hPa 0,0 l/m 0 min 0 min 0 W/m 6,3 km/h (2 Bft) 100,00 %
12.02.2016 21:04 1,2 C 0,0 C -1,7 C 81 % 0 lf 996,0 hPa 0,0 l/m 0 min 0 min 0 W/m 6,3 km/h (2 Bft) 100,00 %
12.02.2016 21:06 1,1 C 0,0 C -1,7 C 81 % 0 lf 996,0 hPa 0,0 l/m 0 min 0 min 0 W/m 4,2 km/h (1 Bft) 100,00 %
12.02.2016 21:08 1,1 C 0,0 C -1,7 C 81 % 0 lf 996,0 hPa 0,0 l/m 0 min 0 min 0 W/m 10,5 km/h (2 Bft) 100,00 %
12.02.2016 21:10 1,0 C 0,0 C -1,7 C 81 % 0 lf 996,0 hPa 0,0 l/m 0 min 0 min 0 W/m 10,5 km/h (2 Bft) 95,74 %
12.02.2016 21:12 1,0 C 0,0 C -1,7 C 82 % 0 lf 996,0 hPa 0,0 l/m 0 min 0 min 0 W/m 6,3 km/h (2 Bft) 95,74 %
12.02.2016 21:14 0,9 C 0,0 C -1,7 C 82 % 0 lf 996,0 hPa 0,0 l/m 0 min 0 min 0 W/m 4,2 km/h (1 Bft) 97,37 %
12.02.2016 21:16 0,9 C 0,0 C -1,7 C 82 % 0 lf 996,0 hPa 0,0 l/m 0 min 0 min 0 W/m 4,2 km/h (1 Bft) 100,00 %
12.02.2016 21:18 0,9 C 0,0 C -1,7 C 82 % 0 lf 996,0 hPa 0,0 l/m 0 min 0 min 0 W/m 6,3 km/h (2 Bft) 95,65 %
12.02.2016 21:20 0,8 C 0,0 C -1,7 C 82 % 0 lf 995,9 hPa 0,0 l/m 0 min 0 min 0 W/m 10,5 km/h (2 Bft) 95,74 %
12.02.2016 21:22 0,8 C 0,0 C -1,7 C 83 % 0 lf 995,9 hPa 0,0 l/m 0 min 0 min 0 W/m 10,5 km/h (2 Bft) 100,00 %
12.02.2016 21:24 0,7 C 0,0 C -1,7 C 83 % 0 lf 995,9 hPa 0,0 l/m 0 min 0 min 0 W/m 10,5 km/h (2 Bft) 98,00 %
12.02.2016 21:26 0,7 C 0,0 C -1,7 C 83 % 0 lf 995,9 hPa 0,0 l/m 0 min 0 min 0 W/m 4,2 km/h (1 Bft) 97,87 %
12.02.2016 21:28 0,7 C 0,6 C -1,7 C 83 % 0 lf 995,9 hPa 0,0 l/m 0 min 0 min 0 W/m 14,6 km/h (3 Bft) 95,65 %
12.02.2016 21:30 0,7 C 0,6 C -1,1 C 84 % 0 lf 995,9 hPa 0,0 l/m 0 min 0 min 0 W/m 6,3 km/h (2 Bft) 93,62 %
12.02.2016 21:32 0,6 C 0,6 C -1,1 C 84 % 0 lf 995,9 hPa 0,0 l/m 0 min 0 min 0 W/m 8,4 km/h (2 Bft) 97,73 %
12.02.2016 21:34 0,6 C 0,6 C -1,1 C 84 % 0 lf 995,8 hPa 0,0 l/m 0 min 0 min 0 W/m 8,4 km/h (2 Bft) 97,87 %
12.02.2016 21:36 0,6 C 0,6 C -1,1 C 84 % 0 lf 995,9 hPa 0,0 l/m 0 min 0 min 0 W/m 8,4 km/h (2 Bft) 97,87 %
12.02.2016 21:38 0,6 C 0,6 C -1,1 C 84 % 0 lf 995,9 hPa 0,0 l/m 0 min 0 min 0 W/m 6,3 km/h (2 Bft) 98,00 %
12.02.2016 21:40 0,5 C 0,6 C -1,1 C 85 % 0 lf 995,9 hPa 0,0 l/m 0 min 0 min 0 W/m 6,3 km/h (2 Bft) 97,83 %
12.02.2016 21:42 0,5 C 0,0 C -1,7 C 85 % 0 lf 995,8 hPa 0,0 l/m 0 min 0 min 0 W/m 6,3 km/h (2 Bft) 95,45 %
12.02.2016 21:44 0,5 C 0,0 C -1,7 C 85 % 0 lf 995,8 hPa 0,0 l/m 0 min 0 min 0 W/m 8,4 km/h (2 Bft) 96,00 %
12.02.2016 21:46 0,5 C 0,0 C -1,7 C 85 % 0 lf 995,8 hPa 0,0 l/m 0 min 0 min 0 W/m 8,4 km/h (2 Bft) 96,23 %
12.02.2016 21:48 0,5 C 0,0 C -1,7 C 85 % 0 lf 995,9 hPa 0,0 l/m 0 min 0 min 0 W/m 8,4 km/h (2 Bft) 97,87 %
12.02.2016 21:50 0,5 C 0,0 C -1,7 C 85 % 0 lf 995,8 hPa 0,0 l/m 0 min 0 min 0 W/m 10,5 km/h (2 Bft) 97,83 %
12.02.2016 21:52 0,5 C 0,6 C -1,7 C 85 % 0 lf 995,8 hPa 0,0 l/m 0 min 0 min 0 W/m 10,5 km/h (2 Bft) 95,74 %
12.02.2016 21:54 0,5 C 0,6 C -1,7 C 85 % 0 lf 995,9 hPa 0,0 l/m 0 min 0 min 0 W/m 10,5 km/h (2 Bft) 97,87 %
12.02.2016 21:56 0,5 C 0,6 C -1,7 C 86 % 0 lf 995,9 hPa 0,0 l/m 0 min 0 min 0 W/m 10,5 km/h (2 Bft) 91,49 %
12.02.2016 21:58 0,5 C 0,0 C -1,7 C 86 % 0 lf 995,8 hPa 0,0 l/m 0 min 0 min 0 W/m 10,5 km/h (2 Bft) 91,49 %
12.02.2016 22:00 0,5 C 0,6 C -1,7 C 86 % 0 lf 995,8 hPa 0,0 l/m 0 min 0 min 0 W/m 10,5 km/h (2 Bft) 90,91 %
12.02.2016 22:02 0,5 C 0,0 C -1,7 C 86 % 0 lf 995,8 hPa 0,0 l/m 0 min 0 min 0 W/m 10,5 km/h (2 Bft) 94,74 %
12.02.2016 22:04 0,5 C 0,6 C -1,7 C 86 % 0 lf 995,8 hPa 0,0 l/m 0 min 0 min 0 W/m 10,5 km/h (2 Bft) 95,65 %
12.02.2016 22:06 0,4 C 0,0 C -1,7 C 86 % 0 lf 995,8 hPa 0,0 l/m 0 min 0 min 0 W/m 8,4 km/h (2 Bft) 92,86 %
12.02.2016 22:08 0,4 C 0,0 C -1,7 C 86 % 0 lf 995,7 hPa 0,0 l/m 0 min 0 min 0 W/m 6,3 km/h (2 Bft) 94,00 %
12.02.2016 22:10 0,4 C 0,6 C -1,7 C 86 % 0 lf 995,7 hPa 0,0 l/m 0 min 0 min 0 W/m 8,4 km/h (2 Bft) 89,36 %
12.02.2016 22:12 0,4 C 0,6 C -1,7 C 86 % 0 lf 995,7 hPa 0,0 l/m 0 min 0 min 0 W/m 10,5 km/h (2 Bft) 93,48 %
12.02.2016 22:14 0,4 C 0,0 C -1,7 C 86 % 0 lf 995,7 hPa 0,0 l/m 0 min 0 min 0 W/m 8,4 km/h (2 Bft) 94,87 %
12.02.2016 22:16 0,4 C 0,0 C -1,7 C 86 % 0 lf 995,7 hPa 0,0 l/m 0 min 0 min 0 W/m 10,5 km/h (2 Bft) 95,65 %
12.02.2016 22:18 0,3 C 0,0 C -1,7 C 86 % 0 lf 995,7 hPa 0,0 l/m 0 min 0 min 0 W/m 8,4 km/h (2 Bft) 93,62 %
12.02.2016 22:20 0,3 C 0,0 C -1,7 C 86 % 0 lf 995,7 hPa 0,0 l/m 0 min 0 min 0 W/m 10,5 km/h (2 Bft) 92,00 %
12.02.2016 22:22 0,3 C 0,0 C -1,7 C 86 % 0 lf 995,7 hPa 0,0 l/m 0 min 0 min 0 W/m 8,4 km/h (2 Bft) 93,62 %
12.02.2016 22:24 0,3 C 0,0 C -1,7 C 86 % 0 lf 995,7 hPa 0,0 l/m 0 min 0 min 0 W/m 12,6 km/h (3 Bft) 95,74 %
12.02.2016 22:26 0,3 C 0,0 C -1,7 C 87 % 0 lf 995,7 hPa 0,0 l/m 0 min 0 min 0 W/m 8,4 km/h (2 Bft) 95,65 %
12.02.2016 22:28 0,3 C 0,0 C -1,7 C 87 % 0 lf 995,7 hPa 0,0 l/m 0 min 0 min 0 W/m 10,5 km/h (2 Bft) 89,36 %
12.02.2016 22:30 0,3 C 0,0 C -1,7 C 87 % 0 lf 995,7 hPa 0,0 l/m 0 min 0 min 0 W/m 8,4 km/h (2 Bft) 97,87 %
12.02.2016 22:32 0,3 C 0,0 C -1,7 C 87 % 0 lf 995,6 hPa 0,0 l/m 0 min 0 min 0 W/m 8,4 km/h (2 Bft) 92,45 %
12.02.2016 22:34 0,3 C 0,0 C -1,7 C 87 % 0 lf 995,7 hPa 0,0 l/m 0 min 0 min 0 W/m 10,5 km/h (2 Bft) 95,74 %
12.02.2016 22:36 0,2 C 0,0 C -1,7 C 87 % 0 lf 995,7 hPa 0,0 l/m 0 min 0 min 0 W/m 10,5 km/h (2 Bft) 89,36 %
12.02.2016 22:38 0,2 C 0,0 C -1,7 C 87 % 0 lf 995,7 hPa 0,0 l/m 0 min 0 min 0 W/m 10,5 km/h (2 Bft) 97,37 %
12.02.2016 22:40 0,2 C 0,0 C -1,7 C 87 % 0 lf 995,7 hPa 0,0 l/m 0 min 0 min 0 W/m 8,4 km/h (2 Bft) 91,30 %
12.02.2016 22:42 0,2 C 0,0 C -1,7 C 87 % 0 lf 995,7 hPa 0,0 l/m 0 min 0 min 0 W/m 8,4 km/h (2 Bft) 96,00 %
12.02.2016 22:44 0,2 C 0,0 C -1,7 C 87 % 0 lf 995,7 hPa 0,0 l/m 0 min 0 min 0 W/m 10,5 km/h (2 Bft) 93,62 %
12.02.2016 22:46 0,2 C 0,0 C -1,7 C 87 % 0 lf 995,7 hPa 0,0 l/m 0 min 0 min 0 W/m 6,3 km/h (2 Bft) 93,62 %
12.02.2016 22:48 0,2 C 0,0 C -1,7 C 87 % 0 lf 995,7 hPa 0,0 l/m 0 min 0 min 0 W/m 10,5 km/h (2 Bft) 95,74 %
12.02.2016 22:50 0,2 C 0,0 C -1,7 C 87 % 0 lf 995,6 hPa 0,0 l/m 0 min 0 min 0 W/m 10,5 km/h (2 Bft) 95,65 %
12.02.2016 22:52 0,2 C 0,0 C -1,7 C 87 % 0 lf 995,6 hPa 0,0 l/m 0 min 0 min 0 W/m 8,4 km/h (2 Bft) 92,45 %
12.02.2016 22:54 0,2 C 0,0 C -1,7 C 87 % 0 lf 995,6 hPa 0,0 l/m 0 min 0 min 0 W/m 8,4 km/h (2 Bft) 95,74 %
12.02.2016 22:56 0,1 C 0,0 C -1,7 C 87 % 0 lf 995,6 hPa 0,0 l/m 0 min 0 min 0 W/m 6,3 km/h (2 Bft) 95,74 %
12.02.2016 22:58 0,1 C 0,0 C -1,7 C 87 % 0 lf 995,6 hPa 0,0 l/m 0 min 0 min 0 W/m 6,3 km/h (2 Bft) 97,87 %
12.02.2016 23:00 0,1 C 0,0 C -1,7 C 87 % 0 lf 995,6 hPa 0,0 l/m 0 min 0 min 0 W/m 10,5 km/h (2 Bft) 93,02 %
12.02.2016 23:02 0,1 C 0,0 C -1,7 C 87 % 0 lf 995,6 hPa 0,0 l/m 0 min 0 min 0 W/m 6,3 km/h (2 Bft) 100,00 %
12.02.2016 23:04 0,1 C 0,0 C -1,7 C 87 % 0 lf 995,6 hPa 0,0 l/m 0 min 0 min 0 W/m 8,4 km/h (2 Bft) 91,49 %
12.02.2016 23:06 0,1 C 0,0 C -1,7 C 87 % 0 lf 995,6 hPa 0,0 l/m 0 min 0 min 0 W/m 8,4 km/h (2 Bft) 96,23 %
12.02.2016 23:08 0,1 C 0,0 C -1,7 C 88 % 0 lf 995,5 hPa 0,0 l/m 0 min 0 min 0 W/m 10,5 km/h (2 Bft) 95,74 %
12.02.2016 23:10 0,1 C 0,0 C -2,2 C 88 % 0 lf 995,5 hPa 0,0 l/m 0 min 0 min 0 W/m 8,4 km/h (2 Bft) 93,62 %
12.02.2016 23:12 0,1 C 0,0 C -2,2 C 88 % 0 lf 995,5 hPa 0,0 l/m 0 min 0 min 0 W/m 10,5 km/h (2 Bft) 97,56 %
12.02.2016 23:14 0,0 C 0,0 C -2,2 C 88 % 0 lf 995,5 hPa 0,0 l/m 0 min 0 min 0 W/m 8,4 km/h (2 Bft) 94,55 %
12.02.2016 23:16 0,0 C 0,0 C -2,2 C 88 % 0 lf 995,5 hPa 0,0 l/m 0 min 0 min 0 W/m 8,4 km/h (2 Bft) 95,74 %
12.02.2016 23:18 0,0 C 0,0 C -2,2 C 88 % 0 lf 995,5 hPa 0,0 l/m 0 min 0 min 0 W/m 6,3 km/h (2 Bft) 95,74 %
12.02.2016 23:20 0,0 C 0,0 C -2,2 C 88 % 0 lf 995,6 hPa 0,0 l/m 0 min 0 min 0 W/m 12,6 km/h (3 Bft) 96,00 %
12.02.2016 23:22 0,0 C 0,0 C -1,7 C 88 % 0 lf 995,5 hPa 0,0 l/m 0 min 0 min 0 W/m 6,3 km/h (2 Bft) 95,65 %
12.02.2016 23:24 0,0 C 0,0 C -1,7 C 88 % 0 lf 995,6 hPa 0,0 l/m 0 min 0 min 0 W/m 10,5 km/h (2 Bft) 97,37 %
12.02.2016 23:26 -0,1 C 0,0 C -1,7 C 88 % 0 lf 995,6 hPa 0,0 l/m 0 min 0 min 0 W/m 10,5 km/h (2 Bft) 91,49 %
12.02.2016 23:28 -0,1 C 0,0 C -2,2 C 88 % 0 lf 995,5 hPa 0,0 l/m 0 min 0 min 0 W/m 6,3 km/h (2 Bft) 95,74 %
12.02.2016 23:30 -0,1 C 0,0 C -2,2 C 88 % 0 lf 995,5 hPa 0,0 l/m 0 min 0 min 0 W/m 10,5 km/h (2 Bft) 95,74 %
12.02.2016 23:32 -0,1 C 0,0 C -2,2 C 88 % 0 lf 995,5 hPa 0,0 l/m 0 min 0 min 0 W/m 6,3 km/h (2 Bft) 95,74 %
12.02.2016 23:34 -0,1 C 0,0 C -2,2 C 88 % 0 lf 995,5 hPa 0,0 l/m 0 min 0 min 0 W/m 12,6 km/h (3 Bft) 93,62 %
12.02.2016 23:36 -0,1 C 0,0 C -2,2 C 88 % 0 lf 995,5 hPa 0,0 l/m 0 min 0 min 0 W/m 8,4 km/h (2 Bft) 95,74 %
12.02.2016 23:38 -0,1 C -0,6 C -2,2 C 88 % 0 lf 995,5 hPa 0,0 l/m 0 min 0 min 0 W/m 10,5 km/h (2 Bft) 91,30 %
12.02.2016 23:40 -0,1 C -0,6 C -2,2 C 88 % 0 lf 995,5 hPa 0,0 l/m 0 min 0 min 0 W/m 6,3 km/h (2 Bft) 95,74 %
12.02.2016 23:42 -0,1 C -0,6 C -2,2 C 88 % 0 lf 995,5 hPa 0,0 l/m 0 min 0 min 0 W/m 8,4 km/h (2 Bft) 93,62 %
12.02.2016 23:44 -0,2 C -0,6 C -2,2 C 88 % 0 lf 995,5 hPa 0,0 l/m 0 min 0 min 0 W/m 6,3 km/h (2 Bft) 89,36 %
12.02.2016 23:46 -0,2 C -0,6 C -2,2 C 88 % 0 lf 995,5 hPa 0,0 l/m 0 min 0 min 0 W/m 4,2 km/h (1 Bft) 94,23 %
12.02.2016 23:48 -0,2 C -0,6 C -2,2 C 88 % 0 lf 995,5 hPa 0,0 l/m 0 min 0 min 0 W/m 6,3 km/h (2 Bft) 95,74 %
12.02.2016 23:50 -0,2 C -0,6 C -2,2 C 88 % 0 lf 995,6 hPa 0,0 l/m 0 min 0 min 0 W/m 6,3 km/h (2 Bft) 100,00 %
12.02.2016 23:52 -0,2 C -0,6 C -2,2 C 88 % 0 lf 995,6 hPa 0,0 l/m 0 min 0 min 0 W/m 4,2 km/h (1 Bft) 95,74 %
12.02.2016 23:54 -0,2 C -0,6 C -2,2 C 88 % 0 lf 995,5 hPa 0,0 l/m 0 min 0 min 0 W/m 4,2 km/h (1 Bft) 97,87 %
12.02.2016 23:56 -0,2 C -0,6 C -2,2 C 88 % 0 lf 995,5 hPa 0,0 l/m 0 min 0 min 0 W/m 4,2 km/h (1 Bft) 98,00 %
12.02.2016 23:58 -0,2 C -0,6 C -2,2 C 88 % 0 lf 995,5 hPa 0,0 l/m 0 min 0 min 0 W/m 4,2 km/h (1 Bft) 97,37 %
_ Min-Zeit 23:44 23:38 23:10 15:48 00:00 23:08 - - - - 05:38 04:02
Minimum _ -0,2 C -0,6 C -2,2 C 68 % 0 lf 995,5 hPa - - - - 2,1 km/h (1 Bft) 86,67 %
_ Max-Zeit 14:58 14:46 11:52 00:00 02:28 00:16 00:00 09:36 02:30 13:36 11:10 00:10
Maximum _ 6,6 C 14,4 C 6,1 C 93 % 1 lf 1004,3 hPa 0,0 l/m 2 min 2 min 533 W/m 35,6 km/h
O-SO (5 Bft)
100,00 %
Durchschnitt _ 3,6 C 4,4 C 2,3 C 84 % 0 lf 999,3 hPa #0,0 l/m #5:06 h #10 min. 195 W/m 14,2 km/h (3 Bft) 96,01 %
© 2016 W. Hausmann